ECMWFFLT1_925_spd_069.txt.gz
Wind_Speed
18 18 16 15 15 16 16 17 20 23 26 28 29 31 34 36 36 36 36 39 41 39 38 37 38 40 41 40 39 39 38 36 36 34 32 33 33 30 28 26 26 26 26 25 23 21 20 18 19 19 18 17 16 16 14 14 14 13 13 12 10 12 11
17 17 16 16 16 17 17 19 22 24 26 28 30 32 34 35 37 37 37 40 41 41 40 39 39 40 42 41 40 40 39 38 37 36 34 33 32 32 31 29 28 27 28 27 25 23 21 20 20 20 20 19 17 17 16 16 16 15 15 15 14 13 13
17 16 17 16 16 17 18 19 21 24 26 29 32 33 35 36 38 38 38 40 41 41 40 40 39 40 41 41 40 41 41 39 38 38 36 35 33 32 32 31 31 29 29 28 27 26 24 23 22 21 21 21 19 18 18 18 18 18 17 17 16 15 15
18 18 17 16 16 16 16 17 20 24 27 30 34 36 37 38 38 39 39 41 42 41 42 41 40 39 39 40 40 41 42 42 40 39 39 37 35 32 32 32 32 31 30 29 28 26 26 25 24 23 23 24 22 19 19 20 20 19 18 17 16 15 15
19 17 16 15 15 15 15 16 20 25 27 29 34 36 37 37 37 37 38 41 43 43 43 42 40 38 39 40 40 40 42 43 42 41 40 39 37 34 33 32 32 31 31 30 28 26 26 26 26 25 24 24 24 21 20 21 21 20 18 18 17 16 15
16 16 15 15 15 15 15 17 22 28 29 29 32 35 36 36 36 37 38 39 42 42 41 41 40 39 39 40 40 39 41 42 42 42 41 39 39 37 35 34 33 33 32 31 30 28 27 27 27 27 26 25 25 24 22 22 23 21 20 20 20 18 17
16 15 16 16 16 16 16 17 22 28 30 29 31 33 36 36 35 37 38 38 40 41 41 42 41 40 39 39 39 39 39 41 42 42 42 40 39 39 38 37 35 34 33 32 32 30 29 28 29 29 28 27 26 26 25 25 24 23 22 21 22 21 20
19 18 17 17 17 16 16 16 20 26 29 28 28 31 35 36 35 36 36 37 39 40 41 42 42 41 40 39 39 39 40 41 42 42 41 41 40 40 40 39 38 36 35 33 33 32 31 30 30 30 31 30 29 28 27 26 26 25 24 24 23 23 22
20 19 19 19 18 16 15 15 19 25 27 27 27 30 34 36 36 36 37 37 38 39 40 41 41 41 40 39 39 40 40 40 41 41 41 41 40 40 41 41 40 39 37 35 34 32 33 32 31 31 32 33 32 30 29 27 27 26 26 26 25 25 24
19 18 17 18 18 15 14 16 18 20 23 25 25 27 32 35 36 36 36 37 38 40 41 41 40 39 39 40 40 40 39 39 40 41 41 41 41 41 41 41 41 40 38 37 36 34 33 34 33 33 32 33 33 33 32 30 29 28 29 29 27 26 26
18 19 19 18 18 17 16 16 16 15 18 24 24 25 29 32 34 35 35 36 38 39 40 39 39 38 38 39 38 38 39 39 40 41 42 42 42 42 42 41 40 40 40 38 37 36 35 34 35 35 34 34 34 34 33 33 32 31 31 31 29 28 27
19 17 18 20 19 18 17 17 17 16 19 24 26 26 28 30 32 34 34 35 36 38 38 37 37 37 37 37 37 37 38 39 40 41 42 43 42 42 42 41 40 40 40 40 38 36 36 36 36 37 37 36 35 34 34 34 34 33 33 33 31 29 29
21 17 16 19 19 18 17 16 17 18 19 23 27 28 28 29 31 33 33 34 35 36 37 37 36 36 36 36 36 37 38 39 40 41 42 43 42 42 41 41 40 40 40 40 39 37 36 37 37 37 38 38 36 35 35 35 35 35 34 34 33 31 30
12 15 15 15 14 15 16 17 18 18 17 21 26 28 30 30 30 31 33 33 33 33 34 36 35 35 35 35 36 37 38 39 40 41 42 43 42 41 41 41 41 40 40 40 40 39 38 37 38 38 38 39 38 37 36 35 35 36 35 34 34 32 31
14 8 9 8 5 3 4 6 9 12 15 20 24 24 25 27 29 30 31 32 33 33 33 34 34 34 34 34 35 38 39 38 38 39 40 41 42 41 40 41 41 40 40 40 41 41 40 38 37 38 38 38 39 39 37 35 35 36 36 36 35 34 33
18 16 16 16 15 12 10 8 5 2 4 11 20 24 25 25 27 29 30 31 32 32 33 34 34 34 33 35 36 37 37 37 37 38 39 40 42 42 41 40 41 40 40 40 41 41 40 38 37 38 39 38 38 38 37 36 36 36 36 37 37 36 34
18 18 17 16 16 15 13 11 10 8 6 2 6 15 21 24 27 29 27 28 30 31 32 32 32 32 32 32 33 35 36 36 36 37 38 40 41 43 43 41 40 40 40 40 41 40 40 39 37 37 39 39 38 38 38 37 37 37 37 37 37 36 35
18 17 15 13 13 15 15 13 10 9 5 4 4 5 8 12 19 26 28 28 29 31 31 30 31 32 33 31 30 32 35 36 37 37 38 40 41 42 43 42 40 41 40 39 40 40 39 39 38 36 37 39 38 37 38 38 37 38 38 38 38 37 36
17 17 15 14 13 12 12 10 9 11 13 14 9 4 5 8 13 20 24 24 23 24 25 23 22 22 25 27 28 31 36 36 36 38 38 39 41 41 42 42 40 41 41 39 40 40 39 40 39 36 35 38 39 38 37 38 38 38 38 37 38 38 37
16 16 16 16 14 12 10 11 10 11 13 17 17 12 7 11 15 12 10 12 15 21 23 19 14 11 10 12 15 22 32 37 36 38 39 38 39 39 40 41 41 41 42 40 39 40 40 39 40 38 35 36 39 38 37 37 38 37 37 36 37 38 38
16 16 16 16 15 12 9 12 14 12 9 10 13 13 14 17 15 10 9 10 14 20 26 26 26 26 21 18 19 23 29 37 39 38 38 37 37 38 39 41 41 40 40 39 39 40 41 40 39 39 36 34 37 39 37 37 38 38 36 36 36 36 38
15 15 14 14 14 14 14 15 17 18 17 16 14 11 13 17 15 11 16 22 23 23 27 29 32 36 36 35 36 34 33 37 40 39 38 38 37 37 39 40 41 40 39 38 37 38 39 39 39 40 39 35 35 37 37 36 37 37 37 36 36 35 37
14 15 15 16 17 18 21 22 23 23 23 22 21 17 14 14 14 14 21 29 31 29 31 32 33 38 40 40 40 38 36 39 41 40 39 38 38 38 39 40 41 41 38 37 36 36 37 39 38 39 40 38 35 34 36 36 36 37 37 36 36 35 36
14 17 17 20 22 22 24 25 25 26 25 24 23 22 20 16 13 11 15 26 31 30 30 32 35 38 41 42 41 38 36 38 42 42 40 39 40 40 40 39 40 41 39 37 36 36 36 37 37 37 39 40 38 35 34 34 35 37 37 36 36 36 37
14 18 20 21 21 22 24 27 26 25 24 23 24 24 24 22 19 16 13 17 26 29 29 32 35 39 43 45 43 38 34 35 39 42 41 41 41 40 39 39 38 39 40 38 36 35 35 35 36 36 36 38 40 39 36 33 32 33 35 37 37 36 37
13 17 21 23 23 23 24 25 24 24 23 23 26 28 28 26 22 19 18 17 20 25 29 33 37 40 43 43 41 37 34 34 38 41 42 42 42 40 39 38 37 37 38 38 35 33 33 34 35 35 35 36 37 38 38 36 33 31 31 34 37 38 39
15 16 20 23 25 26 24 22 22 23 23 24 27 29 28 27 23 20 19 20 21 24 28 33 37 40 40 40 39 38 35 36 39 42 43 42 41 39 38 37 37 37 38 38 36 33 32 32 34 34 34 34 35 35 36 37 36 35 33 32 33 36 39
15 16 19 22 24 25 23 21 22 24 24 26 29 28 27 25 24 23 20 18 21 27 31 30 31 37 41 39 39 39 37 37 40 41 41 40 39 38 38 37 37 37 37 37 36 35 33 32 32 32 32 33 34 34 34 34 36 37 37 35 33 33 37
14 15 19 22 23 24 23 21 21 23 25 27 28 27 27 26 26 27 25 22 24 30 34 33 30 33 38 39 38 38 38 38 40 40 38 38 38 38 37 36 36 36 36 36 36 35 34 32 31 31 31 31 32 33 33 33 35 37 38 38 37 35 36
14 16 19 22 24 25 25 22 21 24 26 28 28 28 27 25 25 26 25 26 30 31 32 36 34 32 34 37 38 38 38 38 39 40 38 37 38 37 36 36 36 35 35 36 35 34 33 32 31 30 29 29 30 32 33 34 35 37 39 40 40 40 39
14 17 20 22 25 26 25 24 24 25 26 27 28 28 27 25 23 24 26 29 32 32 31 34 37 36 35 36 37 38 39 38 39 40 39 37 37 37 36 35 35 34 34 35 35 33 32 31 30 29 28 28 29 30 33 35 36 38 40 40 41 41 41
14 19 21 22 26 27 25 24 25 25 25 27 27 27 27 26 24 24 28 32 35 34 31 32 36 37 38 38 37 37 37 37 37 38 39 38 38 38 37 36 35 34 32 32 33 33 32 31 30 30 28 28 29 30 32 34 36 37 39 41 41 41 41
12 18 21 22 25 26 23 22 23 23 25 27 27 27 27 26 26 26 29 32 35 36 31 32 35 35 36 37 37 37 37 37 37 37 36 36 36 35 35 35 35 33 32 32 32 32 31 30 30 30 29 28 28 29 31 33 35 36 38 40 41 42 41
11 15 20 24 27 25 22 22 23 23 24 26 27 27 28 27 27 28 29 30 35 36 29 32 36 34 35 36 35 37 38 37 38 37 35 35 34 33 33 33 33 33 33 34 35 33 32 32 32 31 32 31 29 28 28 30 33 35 38 41 42 42 43
15 16 17 22 25 25 23 23 23 23 24 26 28 28 27 27 28 28 29 30 35 35 25 32 36 34 35 37 35 36 37 37 37 37 34 33 32 30 30 32 33 33 33 34 36 36 35 34 34 35 35 34 33 32 29 29 33 37 40 42 42 42 43
16 17 18 20 23 24 25 25 24 24 24 25 28 29 28 28 28 29 30 30 32 34 24 27 34 31 32 34 33 34 35 33 33 34 33 31 31 29 28 29 31 32 32 32 35 38 38 36 35 36 37 36 38 39 38 37 39 39 39 39 39 40 40
15 16 18 20 20 24 27 26 25 24 24 25 27 29 31 31 29 27 28 27 27 31 25 19 28 27 28 31 31 33 34 32 31 32 31 29 29 28 27 26 27 29 31 31 33 36 38 38 36 36 37 37 38 39 41 40 37 35 34 35 35 35 36
18 17 17 17 18 22 25 25 23 24 25 26 27 28 31 32 28 26 28 28 25 27 24 13 16 17 19 23 26 27 29 27 26 27 28 27 28 29 28 26 24 25 26 27 30 34 37 38 36 35 36 38 37 36 38 38 34 32 32 32 32 32 33

ECMWFFLT1_925_spd_072.txt.gz
Wind_Speed
14 15 15 14 14 16 16 18 22 26 29 31 33 37 39 38 39 39 38 41 42 41 41 41 41 42 42 41 41 41 39 37 36 37 39 38 36 35 33 32 30 30 30 29 28 28 27 26 25 23 21 20 18 16 17 18 16 14 13 13 13 15 15
15 14 15 14 15 16 17 20 24 26 28 31 33 37 39 38 40 40 39 41 42 42 42 42 41 42 43 42 41 41 41 38 37 37 39 39 37 35 34 33 31 31 31 30 28 27 27 26 26 25 23 21 20 18 18 18 16 15 15 14 12 13 17
15 15 15 16 15 16 17 19 23 26 29 31 33 36 39 40 41 42 41 41 42 42 42 42 42 42 43 42 41 41 42 40 38 38 39 40 39 36 34 33 32 31 31 31 30 28 27 26 26 26 24 23 22 20 20 19 18 18 17 17 15 14 16
17 17 17 17 16 16 16 17 22 27 29 32 35 37 40 41 42 43 43 43 42 42 42 43 42 41 41 41 41 42 42 41 40 39 40 41 41 38 35 34 33 32 31 31 30 29 27 25 25 25 25 24 23 22 22 22 21 21 20 20 20 18 18
19 18 16 15 15 14 15 16 22 28 30 32 36 37 39 41 41 41 42 43 43 44 44 43 42 40 40 41 42 42 43 44 42 40 40 40 41 40 37 35 34 33 32 32 30 29 28 26 25 26 25 25 24 23 23 23 23 23 23 23 23 22 21
16 16 15 15 16 16 16 18 24 30 31 32 35 36 38 39 39 40 41 41 43 43 43 42 42 41 41 42 42 42 43 44 43 41 40 40 40 41 40 39 37 35 34 33 32 31 29 28 27 26 27 27 27 26 25 25 25 25 25 25 24 24 23
16 16 16 16 16 16 17 18 25 31 33 33 34 35 36 38 38 39 39 40 42 42 41 42 43 42 41 41 41 41 41 42 43 42 41 40 40 41 42 41 40 39 37 36 35 34 33 31 30 29 29 28 28 28 28 27 26 26 26 26 26 25 24
18 17 17 16 16 17 17 17 22 28 31 31 32 32 34 36 37 38 38 39 41 41 41 42 43 42 41 40 39 40 40 41 42 42 41 40 39 40 41 42 42 41 39 38 38 37 36 34 32 31 31 31 30 29 30 30 28 26 26 27 27 26 25
19 18 19 18 17 17 16 17 22 27 28 29 31 32 34 35 36 37 38 39 39 40 41 42 42 42 41 40 40 40 39 39 39 40 41 41 40 40 41 41 42 41 40 39 39 38 37 35 33 31 31 32 32 31 30 31 31 29 27 28 29 28 27
17 17 17 16 16 15 14 16 20 22 24 27 29 31 33 34 34 36 37 38 38 40 41 41 41 40 40 41 41 41 39 38 38 38 39 41 41 41 41 41 41 40 40 40 39 38 38 37 34 33 32 33 34 33 32 32 33 32 30 30 30 29 28
11 12 13 14 14 13 13 14 16 17 21 25 27 29 32 33 33 34 36 37 38 39 40 40 39 39 39 40 40 40 40 40 38 38 39 40 41 41 42 41 40 40 40 40 39 38 38 38 37 36 35 35 35 36 35 35 35 34 33 32 32 31 30
8 7 9 13 14 14 15 15 15 16 20 25 26 28 30 32 33 34 35 37 38 38 39 39 39 39 38 39 38 38 40 41 40 39 40 40 40 41 41 41 41 40 40 40 39 38 38 39 39 38 38 37 37 37 37 37 36 36 36 35 34 33 31
4 3 1 2 4 5 6 9 12 15 19 25 28 29 30 32 33 34 34 36 37 37 38 38 38 38 38 38 38 38 39 40 41 41 40 40 41 41 40 41 41 40 40 41 40 39 38 38 39 40 39 39 38 39 39 38 38 37 37 36 35 34 33
14 14 13 13 12 10 8 5 1 4 10 19 25 28 29 31 34 34 34 35 36 36 37 37 37 37 37 37 37 37 38 39 40 40 41 40 40 40 40 40 40 41 41 40 40 40 40 39 39 40 40 40 40 40 40 40 40 39 38 37 36 35 34
17 16 17 16 15 14 14 13 11 9 6 4 10 18 23 25 28 31 32 32 34 35 35 36 36 36 36 36 36 38 38 38 38 38 39 39 39 40 40 40 40 40 40 40 40 40 40 40 39 39 39 40 41 40 40 40 41 41 40 39 38 36 36
16 16 16 15 14 13 13 12 12 12 13 14 13 7 10 16 20 24 28 30 32 33 34 35 35 36 35 35 36 37 37 36 36 37 37 38 39 40 40 40 39 39 40 40 40 40 40 39 39 38 39 40 40 41 40 40 41 42 42 41 40 38 37
15 15 14 14 14 13 13 13 13 13 12 14 18 17 9 3 10 15 19 24 27 29 31 33 34 34 35 35 35 35 35 36 36 37 37 38 39 40 40 40 39 39 39 39 40 40 39 39 39 39 39 40 41 41 41 41 42 43 44 43 42 40 38
15 14 14 14 13 13 13 13 13 12 12 12 15 18 18 11 2 8 12 17 23 26 28 30 31 32 33 33 33 34 36 38 38 38 39 39 40 41 41 40 39 38 38 39 39 39 39 39 39 39 39 39 40 41 41 41 42 43 44 44 44 42 40
14 14 14 13 13 13 12 11 12 12 13 14 15 17 19 18 8 6 11 14 20 24 26 28 30 31 31 31 33 36 39 40 39 40 40 40 41 41 40 40 40 39 39 39 39 39 39 39 40 40 40 39 39 40 41 42 43 44 45 45 44 44 42
13 13 12 11 11 11 11 11 13 16 17 18 18 16 14 16 17 9 13 16 19 23 27 29 29 30 32 32 34 38 38 37 36 38 39 40 40 40 40 40 40 40 40 38 38 38 38 39 40 40 41 41 40 40 40 42 44 45 45 45 44 43 43
13 14 12 11 11 10 10 13 17 20 23 22 21 17 11 10 16 16 13 15 17 22 28 31 31 31 33 36 37 37 37 36 36 36 37 38 39 39 40 40 40 41 40 38 37 38 38 39 40 40 41 42 41 40 40 41 43 44 45 46 45 43 43
11 12 12 13 13 12 12 15 16 18 22 22 20 19 16 13 15 17 14 8 10 15 20 26 31 33 35 37 39 39 39 40 39 37 37 38 39 40 40 41 41 40 40 38 37 37 38 38 39 40 40 41 41 40 40 41 42 43 45 45 45 44 43
10 10 11 12 14 16 16 17 16 18 21 22 21 19 20 20 19 18 18 15 13 13 14 17 24 31 36 38 39 40 42 42 40 38 37 37 38 40 41 41 40 40 39 38 37 37 37 37 38 39 39 40 41 41 41 41 41 43 44 45 44 44 43
10 11 12 14 15 18 20 20 19 20 22 25 24 21 21 24 25 20 18 19 18 17 17 17 21 28 33 36 38 40 41 42 40 38 36 36 38 39 39 39 39 39 39 38 38 38 37 37 37 37 38 39 40 41 41 41 41 43 44 45 44 44 43
10 13 14 14 16 18 21 22 21 20 21 23 24 22 20 22 24 21 18 20 19 18 22 24 27 31 33 35 36 37 39 40 39 37 36 37 38 39 38 39 39 38 39 39 39 38 37 36 35 36 37 38 39 41 42 41 41 42 43 44 44 44 44
11 13 14 14 16 17 19 20 20 20 19 20 24 25 21 19 21 20 18 18 18 17 21 28 34 37 37 37 37 37 38 38 37 37 37 37 37 38 38 37 37 37 37 38 38 37 36 35 35 35 36 37 37 39 41 41 40 41 42 43 43 44 44
14 16 16 16 16 17 17 17 19 20 19 19 23 26 23 19 20 21 21 20 17 15 16 21 29 35 37 37 37 38 38 38 37 37 38 38 36 35 35 36 35 36 37 36 36 35 35 35 34 34 35 36 36 37 39 41 41 41 41 42 43 44 44
14 16 18 18 17 18 18 17 19 21 20 20 23 24 22 20 21 23 24 22 19 17 17 17 20 25 31 34 36 36 37 38 38 38 38 36 34 33 34 35 35 35 35 35 34 35 35 35 34 33 32 33 35 37 39 40 41 42 42 42 42 43 44
12 14 18 20 21 21 19 18 18 20 21 22 22 21 20 19 20 22 23 24 24 23 21 19 18 20 24 29 33 35 37 38 38 39 37 34 33 34 35 35 35 34 34 34 33 33 33 34 33 31 30 31 33 36 38 39 40 42 43 43 42 42 43
12 14 17 20 22 22 20 18 18 20 21 21 20 20 20 19 19 21 24 25 26 26 25 23 22 20 21 24 29 33 36 37 37 38 38 35 34 35 35 34 34 33 33 34 33 32 31 32 32 31 29 29 31 33 36 38 39 41 44 45 44 42 42
13 14 16 18 22 23 23 20 19 19 20 19 18 19 20 20 20 21 25 26 26 26 26 26 24 22 22 23 26 30 34 35 35 36 37 36 35 35 35 35 34 33 33 33 32 31 31 30 31 31 30 29 30 32 34 36 37 38 42 45 46 45 44
14 15 16 18 20 22 23 22 20 19 19 18 17 18 20 21 21 22 25 27 26 25 26 26 24 25 26 25 26 28 31 33 34 34 35 36 36 36 36 36 35 34 33 32 32 32 31 30 30 31 30 30 31 32 33 33 34 36 39 43 45 47 47
12 15 17 18 20 21 21 20 20 20 19 18 18 20 21 22 22 23 26 26 24 24 26 26 25 25 26 27 27 27 28 32 34 34 33 34 35 35 35 35 36 35 33 33 33 32 31 31 31 31 31 32 32 31 30 31 32 35 37 40 43 45 46
11 15 18 21 22 21 19 19 20 20 19 19 20 22 23 22 23 25 27 27 25 23 24 25 24 24 26 27 28 27 26 31 34 34 33 33 34 34 33 34 35 35 35 37 37 34 32 32 32 32 33 32 31 29 28 29 32 35 38 40 43 45 45
10 14 18 21 22 21 19 18 20 20 19 20 22 23 23 23 25 27 28 26 24 23 24 25 26 26 26 25 26 26 26 29 32 33 32 32 34 35 36 37 38 37 38 40 42 42 40 38 36 36 36 34 32 31 29 29 34 40 43 43 43 44 45
10 12 17 21 22 21 19 19 21 20 19 21 23 22 22 23 26 26 25 24 25 26 26 27 27 26 25 23 23 25 25 27 30 31 32 32 32 32 33 34 38 40 39 40 43 45 46 43 41 40 39 36 36 37 36 37 40 41 40 41 43 44 45
10 12 15 19 21 21 20 20 21 20 19 21 23 22 22 24 24 24 23 25 27 27 27 27 26 25 24 22 23 25 25 26 28 29 31 32 31 31 30 30 32 36 38 39 40 42 44 43 42 41 40 38 38 38 40 42 41 37 35 37 40 42 44
11 12 13 15 18 19 20 20 21 20 20 22 23 22 23 23 23 23 26 29 29 26 26 25 24 24 24 23 23 25 25 26 28 27 28 28 27 28 30 29 28 30 33 35 36 37 40 41 40 40 40 40 40 39 38 39 40 38 35 35 37 40 42

ECMWFFLT1_925_spd_075.txt.gz
Wind_Speed
14 14 14 13 14 15 15 16 21 25 28 31 32 35 37 37 38 38 37 40 41 40 40 40 40 40 40 39 39 39 38 38 38 37 36 35 33 32 32 31 30 28 27 27 26 25 25 24 23 22 21 20 20 19 18 18 19 18 15 14 14 14 15
14 15 15 14 14 16 16 18 23 25 27 30 32 34 36 36 38 39 38 40 41 41 41 41 41 41 41 41 39 39 39 39 39 38 36 36 35 33 33 33 32 30 28 27 26 25 25 25 25 24 23 22 21 20 19 18 19 20 18 16 15 13 13
15 16 16 16 16 16 17 18 22 25 28 30 32 34 36 37 39 40 40 40 41 41 41 42 42 42 42 41 39 39 39 39 40 39 38 37 37 36 34 34 34 32 30 29 27 26 25 25 25 25 24 23 23 22 21 19 19 20 20 18 16 14 14
16 17 17 18 17 16 16 18 22 26 28 31 34 36 37 38 39 40 40 41 41 41 40 42 42 42 41 41 40 40 39 39 40 41 40 39 39 38 36 35 35 34 33 31 29 28 26 25 26 26 25 25 24 23 22 20 19 20 21 19 17 17 16
16 16 15 15 15 16 16 17 22 27 29 31 34 36 37 38 37 38 39 40 42 42 42 42 41 40 40 40 40 40 40 41 41 41 41 40 39 38 37 37 37 36 35 34 32 30 29 28 27 27 27 26 25 24 23 22 21 21 21 20 19 19 18
14 14 14 14 15 16 17 18 24 29 30 31 34 35 36 36 36 37 38 39 40 40 41 41 41 41 40 41 40 39 39 40 40 40 40 39 38 38 39 40 39 38 37 36 34 33 32 30 29 28 27 27 26 25 25 23 22 22 22 21 21 21 20
14 14 14 15 15 15 16 18 23 30 31 31 32 33 34 36 36 37 37 37 39 39 39 40 41 41 40 40 40 39 38 38 38 38 38 37 37 38 39 40 40 39 38 37 36 34 34 33 32 30 28 27 27 26 25 24 23 23 23 23 23 23 23
14 15 16 16 16 16 16 16 21 27 29 29 29 31 33 35 35 35 36 37 38 38 39 39 40 40 39 38 39 39 38 38 38 38 37 36 36 36 38 39 40 41 39 38 37 36 35 34 33 32 30 29 27 26 26 25 25 24 24 25 25 25 25
11 13 15 15 15 15 14 16 21 25 27 29 30 30 32 34 35 35 36 37 37 37 39 39 40 39 38 38 38 38 38 37 37 38 37 36 36 36 37 38 40 40 40 40 39 37 36 35 34 34 32 31 30 28 28 27 26 26 26 27 27 27 27
6 5 6 7 9 11 10 13 18 20 23 26 28 29 32 33 34 35 36 36 36 37 39 39 38 38 38 38 38 37 37 36 37 37 37 38 37 37 36 37 37 38 39 39 39 38 37 36 35 35 34 33 32 31 30 29 29 28 28 28 29 29 29
5 4 4 3 2 4 7 10 13 15 20 26 27 29 31 33 34 34 35 36 37 38 38 38 37 37 37 37 37 37 37 37 36 36 37 39 39 39 38 36 35 36 37 38 38 37 37 37 36 36 35 35 34 33 32 32 31 31 30 30 30 30 30
14 12 10 9 7 4 1 5 7 9 14 19 24 27 29 31 33 34 34 36 37 37 38 37 37 36 36 36 36 36 36 37 36 36 37 38 39 39 39 38 36 35 36 36 37 37 37 37 38 37 37 37 36 35 35 34 33 33 32 32 31 31 31
15 15 14 13 12 10 9 6 1 5 8 12 16 20 23 26 28 30 32 34 36 36 36 36 36 36 35 36 36 36 36 37 37 38 38 38 38 39 39 39 38 37 36 36 36 36 37 37 38 39 39 39 39 38 37 35 35 34 33 33 32 31 31
17 17 16 16 15 14 13 12 8 3 4 11 15 17 18 20 24 26 29 31 33 35 35 35 36 36 36 36 35 36 37 38 38 38 38 38 37 37 38 38 39 39 38 36 35 36 36 37 38 38 39 40 40 40 38 37 36 35 34 34 33 32 32
18 17 17 17 17 15 14 13 12 11 8 1 9 15 19 20 22 24 26 28 30 32 33 34 34 35 35 35 36 37 37 37 37 37 38 37 37 37 38 38 38 38 38 37 36 37 37 37 37 36 37 38 39 39 39 38 38 37 36 36 35 34 34
16 15 15 15 14 14 14 14 13 13 15 15 9 0 9 17 22 24 24 26 28 30 32 33 34 35 35 35 36 38 37 37 36 36 36 36 37 38 38 38 38 37 37 37 38 38 37 37 36 36 35 36 37 38 38 38 39 39 39 38 37 36 36
15 15 14 13 13 13 13 14 14 14 15 18 18 15 8 2 14 22 25 25 27 30 31 32 33 33 35 36 36 36 36 36 36 36 36 37 38 38 38 38 38 38 38 37 38 38 38 37 37 37 36 36 36 37 38 39 40 40 40 40 39 38 37
14 14 14 14 13 13 13 13 13 14 16 18 20 20 17 11 1 11 19 22 25 28 30 33 35 35 34 35 36 36 37 36 36 36 37 37 38 38 39 38 38 38 38 38 38 38 37 37 38 38 37 36 36 36 37 39 41 41 42 41 41 40 38
13 13 14 14 14 14 12 12 13 15 17 19 20 22 21 16 10 5 4 10 15 19 20 21 26 32 36 37 36 37 37 36 36 36 37 38 39 39 38 38 38 38 38 38 38 37 37 38 38 38 38 37 37 37 38 39 41 42 42 42 43 42 40
11 12 12 12 14 14 12 13 15 18 21 21 21 23 22 17 14 11 6 2 10 18 19 14 14 20 28 34 37 36 36 36 36 37 38 38 38 38 37 37 38 39 38 38 36 36 37 38 38 38 38 38 38 39 39 39 41 42 42 43 43 43 42
10 11 11 11 12 12 14 18 20 21 23 25 23 21 21 20 18 14 10 3 7 17 23 23 22 21 23 27 32 34 35 36 36 37 37 37 37 36 37 37 38 38 38 37 36 37 38 38 37 38 38 39 39 39 39 40 41 41 42 42 43 43 42
10 10 10 11 12 13 15 20 22 22 24 26 25 21 20 21 20 16 12 7 2 8 13 20 26 28 27 28 30 32 34 35 36 36 36 36 36 36 37 37 37 38 37 36 36 36 36 36 37 38 38 39 39 39 40 41 42 41 42 43 43 43 42
10 11 10 11 12 14 16 18 21 23 24 25 24 21 20 20 18 16 13 10 7 4 5 11 18 23 27 29 32 33 34 35 35 36 36 35 35 36 37 37 37 38 37 35 35 35 35 36 37 38 38 38 39 39 41 42 42 42 42 43 42 42 42
11 12 13 13 13 14 15 17 19 21 22 25 22 18 19 20 17 15 14 12 11 9 6 8 13 17 21 26 30 31 33 35 36 36 35 35 35 36 37 37 37 37 36 36 36 36 36 36 36 37 38 39 40 41 41 41 42 42 42 43 43 42 42
12 14 15 15 15 16 16 16 17 18 22 25 24 20 18 19 18 16 15 14 13 11 10 9 11 13 17 22 26 27 30 33 35 35 35 35 36 37 36 36 37 36 36 36 36 36 36 35 35 36 37 39 40 41 41 41 42 42 43 44 44 42 42
11 15 17 17 16 17 18 16 15 17 20 24 26 25 20 18 17 16 15 15 14 13 13 14 16 16 16 18 22 25 27 29 32 33 34 35 36 36 36 36 36 35 35 36 36 36 35 35 35 36 37 38 38 39 40 41 42 42 44 45 44 43 43
10 14 18 20 18 16 18 18 17 16 18 21 24 24 22 18 16 15 15 15 13 13 15 17 18 19 19 17 18 21 24 27 29 31 32 34 35 35 35 35 35 35 35 36 35 35 34 35 35 36 36 37 37 38 40 41 42 43 44 45 45 44 43
9 13 18 23 22 18 16 17 19 19 20 22 23 22 20 20 18 16 15 14 12 13 16 18 19 19 19 19 17 17 19 23 28 31 32 32 33 32 33 34 34 34 35 35 34 34 35 35 35 35 35 35 36 38 40 41 42 44 44 45 45 44 44
9 10 15 20 23 22 19 16 17 21 22 24 25 23 20 18 18 19 18 16 16 18 19 19 19 19 19 19 18 16 15 16 21 27 30 31 31 32 33 33 33 34 34 34 34 34 34 35 34 33 33 33 34 37 39 40 42 43 44 45 45 45 45
11 11 12 15 19 23 23 18 16 19 23 24 25 24 22 18 17 18 19 20 22 24 23 22 20 20 19 18 17 17 16 16 17 20 25 29 31 32 32 32 32 33 34 34 33 32 32 33 33 32 31 32 33 35 37 39 40 41 43 45 46 46 46
13 12 12 14 17 19 22 22 20 19 21 24 24 23 23 21 18 17 20 23 24 25 24 22 20 19 19 19 18 18 18 18 18 18 21 25 29 31 32 32 32 32 32 33 32 32 31 31 31 31 31 31 32 34 36 37 38 39 41 44 45 46 47
13 14 13 13 15 17 19 22 23 20 19 21 23 24 24 23 18 16 19 22 23 23 22 20 18 18 18 19 20 19 19 19 20 20 20 23 27 31 33 33 32 32 32 32 32 32 32 31 31 31 31 31 33 34 34 34 35 38 39 40 42 45 47
14 14 14 14 15 16 16 18 20 20 20 21 22 24 25 24 20 17 18 19 20 21 20 18 17 17 17 18 20 21 21 20 21 21 21 22 26 30 32 33 33 32 31 31 32 32 32 31 30 30 30 31 32 32 30 31 33 36 37 37 40 44 47
15 15 16 17 17 16 15 14 16 18 20 21 22 24 25 25 23 20 19 18 18 18 19 19 17 17 18 19 19 20 21 21 21 22 22 23 25 29 32 32 33 33 34 35 36 34 32 31 31 32 33 33 31 29 27 29 33 37 37 38 40 42 44
17 18 18 19 18 17 15 14 15 17 19 21 23 24 24 25 25 23 21 18 17 17 18 19 19 19 19 19 18 18 19 20 21 22 23 23 24 29 33 35 36 37 37 40 42 41 38 36 36 37 38 36 33 30 28 30 36 41 42 41 41 42 43
18 20 21 20 19 18 16 14 14 16 18 20 22 23 23 24 25 25 22 19 18 18 18 19 20 19 17 17 17 16 17 18 21 24 25 23 23 26 31 35 39 40 40 40 42 45 46 44 43 44 42 39 37 37 38 39 43 45 43 41 41 42 43
18 20 22 22 19 18 18 16 15 15 18 20 22 23 24 24 24 24 22 20 19 19 19 19 19 18 17 16 16 17 17 19 23 25 26 25 23 23 26 29 33 38 41 41 41 43 47 49 50 49 45 41 40 41 43 46 45 41 37 37 39 40 41
19 21 22 22 19 18 18 17 15 15 18 20 21 22 24 25 24 23 22 22 21 21 21 21 18 17 17 17 17 17 18 20 23 25 25 25 24 23 23 24 26 30 36 40 40 40 43 48 51 51 47 45 43 41 41 43 42 39 36 35 35 36 39

ECMWFFLT1_925_spd_078.txt.gz
Wind_Speed
12 13 14 13 14 15 15 17 22 24 26 29 31 33 34 34 35 35 34 35 36 36 37 37 36 37 37 38 38 38 37 36 36 35 33 32 31 30 28 26 26 26 25 25 23 21 20 21 21 20 19 19 18 16 14 13 12 11 11 11 10 10 10
12 13 13 13 14 15 16 20 24 25 27 29 31 33 34 35 36 36 35 36 37 37 37 38 38 38 38 38 38 38 37 37 36 35 35 34 32 31 30 28 27 27 27 26 24 22 20 20 21 21 20 19 19 18 16 14 13 12 12 13 13 12 11
12 13 13 14 14 15 16 19 24 26 28 30 31 33 35 36 38 38 37 36 36 36 37 38 38 38 38 38 37 37 37 37 37 36 36 36 35 33 32 30 29 28 27 27 26 23 21 20 20 21 21 21 20 18 17 16 15 14 13 14 15 14 13
11 13 13 14 14 14 15 18 23 27 29 31 34 35 37 38 39 39 39 38 38 37 37 37 38 38 37 37 37 37 37 37 37 37 37 37 36 35 33 32 31 29 28 28 27 25 23 21 21 20 21 22 21 20 18 16 16 15 15 15 16 16 15
10 12 12 13 13 13 14 16 22 27 29 31 34 35 37 38 38 38 39 39 39 40 39 39 39 38 37 37 37 37 37 38 38 38 37 36 35 35 34 34 33 32 31 30 29 27 25 23 22 21 21 21 21 21 19 18 17 16 16 16 16 17 17
9 11 12 13 14 14 14 17 23 27 28 30 33 34 35 36 37 38 38 38 38 38 38 39 39 39 38 37 37 37 37 37 38 38 37 36 35 34 35 35 35 34 33 32 30 29 28 26 24 23 22 21 21 21 21 20 19 18 18 17 17 17 17
9 11 13 12 13 14 14 16 22 27 28 30 31 31 33 35 36 37 37 37 38 37 37 37 38 37 37 37 37 36 36 36 37 37 37 36 35 35 35 35 35 36 35 33 32 31 30 29 27 26 25 23 22 22 22 21 21 20 19 19 18 18 18
11 6 10 11 10 11 11 13 18 23 25 27 28 29 32 33 34 35 36 37 37 37 37 38 37 37 36 36 36 36 36 36 36 36 36 36 35 36 36 35 35 36 35 34 33 32 31 31 30 29 28 26 25 24 23 23 22 21 20 20 20 20 20
16 10 4 4 6 6 6 9 14 18 21 24 25 27 30 32 33 34 36 37 36 36 37 38 38 37 36 36 36 36 36 35 35 36 36 36 36 37 37 37 36 36 35 35 34 33 32 31 31 31 30 29 28 27 26 24 23 22 21 21 21 21 21
16 16 13 8 2 3 5 8 11 13 16 19 22 25 27 29 31 33 35 35 35 36 37 37 36 36 36 36 36 35 35 34 34 35 35 36 37 38 38 38 37 36 36 36 35 34 33 32 32 31 31 30 29 29 28 27 25 24 23 23 22 22 22
15 16 17 16 12 8 4 4 7 10 14 16 17 20 24 26 27 29 32 33 35 35 36 36 35 35 35 35 35 34 34 35 34 34 35 37 37 38 38 37 36 36 37 37 36 35 34 34 33 32 31 31 31 30 30 29 28 26 25 24 24 24 24
13 14 16 17 15 13 10 7 4 1 8 15 18 18 20 23 25 26 28 30 33 34 34 34 34 34 34 34 34 34 34 34 34 34 35 36 37 37 37 36 35 35 37 37 37 36 35 35 34 34 33 33 33 32 31 31 30 29 28 26 26 25 25
12 12 14 14 14 14 13 13 12 11 8 2 13 19 21 23 24 25 27 29 30 32 32 33 33 33 33 34 34 34 34 34 35 35 35 36 37 36 36 36 35 35 36 36 37 37 36 36 36 36 35 35 34 33 33 32 32 31 30 29 28 27 27
15 15 14 14 15 15 15 14 13 14 18 17 8 4 14 21 25 26 27 29 30 31 31 32 33 33 33 33 33 34 35 36 35 35 36 36 36 36 36 36 37 37 36 36 36 37 37 37 36 36 36 36 35 34 33 32 32 32 31 31 30 29 29
16 16 16 15 15 14 13 13 13 13 16 21 22 18 9 4 16 24 27 27 29 31 31 32 32 33 33 33 34 35 35 35 34 35 36 36 36 36 37 37 37 37 37 36 37 37 37 37 36 36 35 36 35 35 33 33 33 33 33 32 32 31 31
14 15 15 14 13 13 12 11 12 15 18 20 22 23 21 16 7 10 22 28 28 30 31 32 32 33 33 33 34 35 35 34 34 34 35 35 36 36 37 37 36 36 37 37 37 37 37 36 36 35 35 35 35 35 35 35 35 36 35 34 34 33 32
14 14 14 14 13 13 13 12 12 15 18 20 21 21 21 22 20 11 8 22 29 31 32 32 33 33 34 35 36 35 34 34 34 34 34 35 36 36 36 37 36 35 36 36 37 37 37 36 35 35 35 35 35 36 36 36 37 37 37 36 35 34 33
14 13 13 13 13 13 14 14 13 15 17 18 20 22 22 23 22 20 13 7 20 29 33 33 34 35 35 35 35 35 35 34 34 34 35 36 36 36 36 36 35 35 35 35 36 36 35 35 35 36 35 35 35 35 36 37 38 38 38 38 37 36 35
12 13 13 13 13 13 13 13 14 16 18 19 20 21 22 22 22 22 21 15 10 18 30 35 34 34 36 36 36 36 36 35 34 34 35 36 36 37 36 35 35 35 35 36 36 35 34 35 36 36 36 35 36 36 37 38 39 39 38 38 38 37 36
10 11 11 12 12 12 12 14 16 19 20 20 21 23 22 22 23 23 22 19 15 9 20 32 36 36 36 37 38 39 39 39 38 38 38 38 37 36 35 35 36 37 36 36 34 33 35 36 36 36 37 37 37 38 38 39 40 40 39 39 38 37 36
9 10 11 11 12 12 14 17 19 20 22 23 24 25 24 24 25 24 23 21 18 13 7 15 26 34 38 38 39 40 40 40 40 41 40 39 38 36 35 36 37 37 36 35 34 34 36 37 36 37 38 38 38 38 39 40 42 41 40 40 39 37 36
8 9 9 10 12 13 15 18 18 18 19 22 25 25 23 25 26 24 22 19 17 15 12 9 10 17 26 33 36 38 38 37 36 36 37 37 36 36 36 36 37 37 36 35 34 34 35 35 36 37 38 39 38 37 38 41 42 42 42 42 40 38 36
8 9 10 11 12 13 15 17 18 18 17 19 22 24 23 24 24 23 20 17 13 13 10 8 11 14 16 19 23 28 32 33 33 33 33 34 34 35 36 37 37 37 36 34 33 34 35 35 36 37 38 37 37 37 39 41 42 42 42 42 40 38 36
9 10 11 13 13 14 15 17 18 17 16 16 19 22 23 23 22 20 18 15 12 11 12 10 9 12 16 20 20 22 26 28 31 33 33 32 33 34 35 35 35 36 35 34 34 35 36 36 36 36 37 37 37 38 40 41 42 41 41 42 40 38 37
13 13 13 14 15 15 17 20 20 19 19 18 18 22 23 22 20 17 16 16 14 11 12 14 15 15 17 21 23 22 25 27 29 31 32 32 33 34 34 34 35 35 34 34 35 36 36 35 34 35 36 37 38 39 39 41 41 40 41 41 40 39 38
15 18 18 17 17 17 19 21 20 21 23 23 22 22 22 20 18 15 15 16 15 12 12 14 16 16 16 18 20 19 20 24 27 29 30 31 31 32 32 33 33 33 32 32 34 35 34 34 34 35 36 36 37 38 39 40 41 40 40 41 40 39 38
19 21 22 21 20 18 18 19 20 21 22 23 24 24 22 18 16 14 14 14 14 13 15 17 16 14 14 14 14 15 16 16 20 24 27 29 28 26 27 28 28 29 30 31 32 32 32 33 34 35 36 36 36 37 38 40 40 40 40 40 40 39 38
21 23 25 25 24 21 18 17 19 21 22 23 23 24 22 18 15 14 13 13 14 14 17 19 17 14 14 14 11 11 14 11 11 14 17 21 23 25 27 27 27 28 30 31 32 32 33 34 34 33 34 34 35 36 38 39 40 40 40 40 40 39 39
18 21 25 27 26 24 21 18 16 17 21 24 23 22 22 21 18 15 12 13 17 18 17 17 15 13 13 14 11 10 12 12 9 8 7 9 13 20 25 28 29 30 31 31 32 32 33 34 33 32 32 32 33 35 37 38 38 39 40 40 40 40 40
16 19 22 25 28 28 25 22 19 17 18 22 23 21 19 19 21 20 17 16 20 22 20 17 15 12 10 10 9 9 10 11 11 11 8 6 8 13 19 23 26 28 30 32 32 31 32 32 32 31 30 31 32 34 36 37 37 37 39 40 40 40 41
15 18 20 22 27 29 27 24 24 22 20 19 20 21 19 17 18 20 20 21 22 23 22 20 18 14 11 9 8 8 8 9 11 12 11 8 9 13 17 20 21 23 26 30 31 31 31 31 31 30 30 30 31 33 35 35 34 35 37 38 39 40 41
14 18 20 21 24 28 29 27 26 26 24 20 18 19 20 18 16 16 18 21 21 20 20 19 18 17 15 13 11 10 11 12 13 14 14 12 11 13 16 19 21 22 25 28 31 32 33 31 30 30 30 30 31 33 33 32 31 33 35 35 36 39 40
14 16 19 21 22 25 28 28 27 26 25 24 21 19 19 20 20 18 18 19 18 17 17 17 17 17 18 17 15 14 13 14 14 14 14 14 13 14 16 19 23 26 28 31 33 33 32 31 30 28 29 30 32 32 30 29 31 32 33 33 34 36 38
19 18 20 22 23 23 23 25 27 27 26 26 25 22 20 20 22 22 21 21 19 17 16 16 15 16 18 18 16 15 14 14 13 13 13 13 14 16 18 21 25 30 35 39 40 36 34 33 31 31 32 33 32 29 27 28 32 34 34 34 35 36 37
22 22 22 23 23 23 22 23 26 29 29 28 26 24 22 20 21 22 22 22 20 18 17 17 16 16 16 17 15 14 14 14 13 12 12 14 16 18 21 23 27 31 37 41 42 41 40 37 35 37 39 37 34 31 28 29 34 40 40 38 37 38 39
22 24 25 25 24 24 24 24 26 29 31 31 28 25 22 21 21 21 21 20 18 17 17 17 17 16 15 15 14 13 13 14 14 13 13 15 17 19 22 24 25 27 32 37 39 42 43 42 40 40 40 37 37 37 35 36 40 42 40 37 37 39 38
21 23 26 28 26 24 24 25 26 28 30 31 29 25 23 21 21 20 19 17 16 16 17 17 16 16 15 15 14 14 15 16 16 15 16 17 19 19 21 23 25 26 29 32 36 40 42 43 44 44 41 37 36 37 38 41 42 40 36 33 34 35 36
23 25 28 30 28 26 25 25 25 26 28 29 29 27 25 22 21 20 19 15 14 15 17 16 16 16 16 16 16 16 16 17 18 17 18 19 21 22 21 21 22 25 27 28 31 36 40 41 43 44 44 43 41 38 37 38 40 39 38 35 33 33 34

ECMWFFLT1_925_spd_084.txt.gz
Wind_Speed
7 11 12 12 12 14 15 18 22 23 24 24 24 25 26 25 24 23 22 23 24 24 24 24 23 23 23 23 22 21 20 20 19 18 17 16 16 15 15 14 14 13 12 11 10 10 10 9 10 10 10 10 10 9 9 8 8 7 7 8 7 6 6
3 5 10 11 12 13 16 20 22 22 24 25 25 26 26 25 25 24 22 23 24 24 24 24 24 24 23 23 22 22 22 21 20 18 17 17 16 16 15 14 14 14 13 12 10 10 10 10 10 10 10 10 11 10 10 9 9 8 7 8 8 7 7
9 7 4 6 10 14 15 18 21 23 24 25 25 26 26 25 25 25 24 23 24 24 24 24 24 24 24 23 22 22 23 22 21 20 19 18 17 17 16 15 14 14 14 13 12 11 11 11 11 10 10 10 11 11 11 10 10 9 8 8 8 8 8
11 11 11 9 7 11 14 16 20 21 22 24 25 25 26 26 26 25 24 24 25 25 24 24 24 23 23 23 23 23 23 24 23 22 21 20 18 17 16 15 15 15 14 14 14 13 12 11 11 11 11 10 10 11 11 11 10 10 10 9 9 8 9
12 12 10 10 9 8 11 15 19 20 21 22 23 24 25 26 26 25 25 25 25 26 25 25 24 23 23 23 22 22 23 25 24 23 21 20 18 17 16 17 16 16 15 14 14 13 13 12 12 12 12 11 11 11 11 11 11 11 11 10 10 9 9
12 11 10 9 7 8 9 12 17 19 21 21 22 23 24 25 26 25 25 25 24 24 25 25 25 24 24 23 23 22 22 23 24 23 22 20 19 18 17 17 17 16 16 15 15 14 14 14 13 13 13 12 12 11 11 11 11 11 11 11 11 10 10
12 11 10 11 7 4 7 10 15 17 17 17 20 22 23 24 25 25 24 23 24 24 24 25 24 23 23 23 23 22 22 23 23 23 22 21 20 20 19 18 17 17 16 16 16 15 15 15 14 14 13 13 12 12 12 12 12 12 12 12 12 11 11
13 13 11 13 13 9 6 3 8 12 16 18 19 20 22 23 23 24 24 24 23 24 24 24 24 23 22 22 22 23 22 22 22 22 22 22 21 20 20 19 18 18 17 16 16 16 16 15 15 15 14 14 13 13 13 12 12 13 12 13 13 12 12
14 14 14 15 15 14 15 15 12 5 5 15 18 17 18 21 22 22 23 24 23 24 25 24 24 23 23 22 22 23 22 22 21 21 22 22 22 21 21 20 19 19 19 19 18 17 17 17 16 16 15 15 15 14 14 13 13 13 13 13 13 13 13
14 15 16 16 15 15 17 20 22 20 15 6 9 16 17 17 19 20 22 22 23 24 25 24 23 23 23 23 23 23 23 22 22 22 22 23 22 22 22 21 20 19 20 20 19 18 18 18 17 17 16 17 17 16 15 15 15 15 14 14 14 13 14
13 14 15 17 17 17 18 20 19 19 21 19 9 5 13 16 17 18 19 21 22 22 23 23 23 23 24 24 23 23 23 23 23 22 23 23 23 23 22 22 20 20 20 20 20 19 18 18 18 18 18 18 18 18 17 16 16 16 16 15 15 14 14
12 13 15 17 17 17 17 17 19 20 20 21 19 13 7 10 16 18 18 19 20 20 20 20 21 23 23 23 23 23 24 23 23 23 23 23 23 22 22 22 21 20 19 19 20 20 19 18 18 19 19 19 19 18 18 17 17 17 17 17 16 15 15
12 12 13 15 16 17 17 16 18 21 22 21 20 19 16 9 5 11 15 18 19 18 18 20 21 22 22 22 22 22 23 24 23 23 23 23 22 22 22 22 21 21 20 19 19 20 20 19 19 19 19 20 20 19 18 18 18 18 18 18 17 16 16
13 14 14 15 16 17 17 17 17 19 21 22 21 20 18 17 14 10 6 10 16 18 19 20 21 22 22 21 20 21 22 23 22 22 22 22 22 21 21 21 21 21 21 20 19 20 21 20 20 19 19 20 20 20 19 18 18 18 18 18 18 18 17
14 15 15 16 16 16 16 15 16 19 20 20 21 22 20 18 17 15 11 7 8 14 17 18 18 20 21 20 20 20 21 21 20 20 21 21 21 22 22 21 21 21 21 20 20 20 20 21 20 20 19 19 20 20 20 20 19 19 19 19 18 19 19
13 14 15 15 15 15 15 15 16 19 20 20 21 21 20 19 19 15 10 6 6 7 13 16 17 19 20 20 21 21 20 19 19 19 20 21 21 22 22 22 20 20 21 21 21 20 19 20 20 21 20 20 19 20 20 21 21 21 23 23 21 19 19
13 13 14 14 14 14 14 15 18 19 20 21 21 20 19 18 18 17 12 8 5 5 8 13 17 19 19 20 20 20 19 20 20 20 20 20 21 21 21 22 21 20 20 20 20 20 19 19 20 21 21 21 20 20 21 21 22 23 27 29 28 24 20
12 12 13 13 13 14 13 14 16 19 20 20 20 20 19 18 17 16 15 14 10 8 8 10 14 18 20 20 19 18 19 19 19 21 21 20 21 21 20 20 20 20 19 20 20 20 20 20 20 21 22 22 22 22 22 22 22 24 28 31 32 31 27
11 12 12 12 13 13 13 13 15 17 18 18 19 20 19 17 17 17 16 16 15 11 9 9 10 12 15 19 20 18 19 19 19 20 22 22 22 20 19 18 19 20 20 19 19 18 19 20 20 21 21 22 23 23 23 23 23 25 29 31 33 34 33
11 11 11 11 12 13 13 14 15 17 18 18 19 20 20 17 16 18 18 17 16 13 10 9 8 8 8 14 19 19 18 19 19 20 21 21 21 19 18 19 20 21 20 18 17 17 19 20 20 20 21 21 22 23 23 24 24 25 28 31 33 34 35
10 11 11 11 11 12 14 15 16 17 18 18 19 20 20 19 18 19 18 17 16 14 11 8 6 5 5 6 11 15 17 18 19 20 20 19 19 18 19 20 20 20 20 19 18 18 19 20 20 20 20 21 22 22 23 24 24 26 29 31 33 33 33
9 10 10 11 12 13 14 15 16 16 15 16 18 19 19 19 20 19 18 17 16 15 14 11 7 5 3 1 3 7 13 16 17 19 19 19 18 19 19 20 20 20 20 19 19 19 19 19 19 20 20 21 21 22 23 24 24 27 30 32 33 32 32
9 10 10 11 12 12 14 15 14 15 14 14 16 17 18 19 19 18 16 15 14 13 13 12 12 11 6 1 3 5 7 11 13 15 17 18 18 19 19 19 20 20 19 19 20 20 20 20 19 19 19 20 21 22 23 24 25 27 30 32 33 32 32
10 11 11 12 12 12 14 15 14 14 14 14 15 16 16 18 19 18 16 15 14 13 12 12 12 12 9 4 5 6 6 8 10 13 15 16 18 19 19 19 19 19 20 20 21 21 22 21 20 20 20 19 20 21 23 24 24 27 30 33 33 33 34
10 12 12 12 12 13 14 14 13 14 14 14 15 15 15 15 18 18 17 16 15 14 13 14 14 13 10 7 5 5 5 7 9 11 14 16 17 19 20 21 21 20 20 21 21 21 22 22 23 23 24 24 23 22 23 25 25 26 29 33 34 34 36
11 12 13 13 13 13 14 13 12 14 14 13 14 15 15 14 15 16 17 17 16 15 15 16 16 15 13 10 7 5 5 7 9 10 12 15 17 19 21 21 22 22 22 21 21 22 23 24 25 26 28 29 29 27 25 25 26 27 29 32 33 34 36
12 12 13 13 13 13 13 12 12 14 14 13 13 14 14 13 13 14 16 16 17 17 17 17 17 17 15 13 11 8 5 5 7 9 11 13 15 17 20 21 22 23 24 23 23 23 24 25 25 25 26 27 30 32 30 28 27 26 28 31 33 34 36
14 14 13 13 13 13 12 12 13 14 14 13 13 13 13 14 13 13 13 14 16 18 18 17 17 16 16 15 13 11 10 8 7 8 9 10 10 12 16 19 21 21 22 23 24 25 26 27 26 25 25 25 28 31 32 31 29 27 28 30 32 34 36
15 15 15 15 14 14 13 13 13 14 14 14 13 13 13 13 13 12 13 13 14 16 18 18 17 16 16 15 13 12 14 13 11 9 9 9 8 9 11 14 17 19 20 22 23 25 27 28 28 27 25 25 26 27 28 29 30 29 30 31 33 34 36
15 16 16 16 16 15 14 14 14 14 14 14 12 12 12 12 12 12 13 13 13 13 15 16 16 16 16 15 12 11 13 14 13 12 12 12 11 10 11 12 14 16 18 20 21 22 24 26 28 29 27 24 24 23 24 25 26 27 29 31 34 35 37
15 16 17 17 17 17 16 16 16 16 16 14 12 12 11 11 12 13 14 14 13 13 13 13 14 15 15 15 13 12 12 13 13 12 11 12 12 12 12 12 12 13 15 17 19 21 22 22 24 26 26 25 23 22 21 21 21 23 24 27 30 34 37
14 16 18 18 18 17 17 18 18 17 17 15 13 13 12 11 12 13 14 14 14 14 13 13 13 13 14 15 15 13 13 13 12 10 10 9 10 10 12 13 13 12 13 15 18 19 20 20 21 23 25 24 24 23 21 19 19 22 24 25 26 31 37
14 15 17 18 18 18 18 18 18 18 18 17 15 14 13 13 13 14 14 14 14 15 15 14 14 13 12 14 15 14 14 13 12 11 11 10 9 9 10 11 14 14 14 15 17 17 18 19 20 21 22 22 22 23 21 20 23 28 29 27 25 27 34
14 15 17 18 18 18 18 18 18 18 19 18 17 15 15 15 14 15 15 14 14 14 15 15 14 14 13 14 14 14 14 14 13 12 12 11 10 10 9 10 12 15 16 17 18 18 18 18 19 20 21 21 22 22 20 19 23 28 28 25 23 25 29
15 16 17 17 18 18 18 18 19 20 20 20 19 17 17 16 16 15 15 14 13 12 13 14 15 15 14 14 13 12 13 14 13 12 11 12 12 11 10 11 13 15 16 17 17 18 19 19 19 19 19 20 21 21 19 17 18 21 22 24 26 29 30
17 17 17 18 18 18 18 19 20 21 22 21 20 19 18 18 18 17 16 15 13 11 12 14 15 15 14 13 13 12 12 13 14 13 12 13 13 12 12 14 15 17 19 20 21 21 22 24 25 25 24 25 26 25 22 19 17 18 22 25 27 32 35
18 18 19 19 19 19 20 20 21 22 23 23 22 21 20 18 18 17 16 15 14 13 13 13 15 15 14 13 13 13 13 13 14 14 14 14 15 14 14 15 16 17 19 21 21 22 22 24 26 28 29 31 34 34 32 29 26 25 27 27 26 27 31
20 21 21 21 20 21 22 22 23 24 24 24 23 22 21 19 18 17 16 16 16 15 14 14 15 15 14 13 13 13 13 14 14 14 15 15 16 16 16 16 16 17 19 20 19 19 21 22 24 26 27 29 32 35 37 37 35 34 35 35 35 33 32

ECMWFFLT1_925_spd_087.txt.gz
Wind_Speed
11 11 12 12 12 14 15 18 21 22 21 22 23 27 27 25 24 25 25 26 26 26 26 25 24 23 23 22 21 21 20 19 18 17 16 15 14 13 13 12 12 11 11 10 10 9 9 8 9 9 9 9 9 8 7 7 7 6 6 6 5 4 5
7 9 10 12 13 15 16 17 20 20 20 20 23 27 27 25 25 25 24 26 27 27 26 25 24 24 23 23 21 21 21 20 19 17 16 16 15 14 14 13 13 12 11 10 9 9 10 9 9 9 9 9 9 9 8 8 8 7 7 8 7 5 5
7 7 6 7 9 12 14 16 19 19 19 21 23 26 26 25 26 24 24 25 25 25 26 26 25 24 23 23 22 22 22 21 20 19 18 17 16 16 15 14 13 13 13 12 10 10 10 10 10 10 9 9 9 9 9 9 9 9 8 8 7 6 6
7 6 5 4 7 9 9 13 17 18 19 19 20 22 23 24 23 21 22 24 25 25 25 25 25 24 24 23 23 22 23 22 21 20 19 18 17 16 16 15 14 14 14 13 12 11 10 11 11 11 10 10 9 9 10 9 9 9 9 8 7 7 8
8 7 6 3 3 7 8 8 9 11 12 12 14 18 22 23 21 19 21 23 24 24 24 24 24 24 24 24 23 22 23 23 22 21 20 19 18 17 16 16 16 15 15 14 14 13 12 11 12 12 11 11 10 10 10 10 9 9 9 9 8 8 8
10 9 8 8 6 2 8 12 12 11 11 13 16 15 18 24 24 22 23 23 23 24 25 27 27 25 25 25 24 22 22 23 22 21 20 19 19 18 18 17 17 16 16 15 15 14 14 13 13 13 13 12 11 11 11 11 11 10 10 10 9 9 8
11 10 9 9 10 9 4 9 15 16 14 16 21 21 18 19 21 22 23 22 24 26 26 28 28 27 26 25 24 23 23 23 22 22 20 20 20 20 19 18 18 17 16 16 16 16 15 15 14 14 13 13 12 12 12 11 11 11 11 11 10 10 9
11 10 10 9 10 11 11 12 12 12 14 16 21 24 19 14 15 18 19 20 22 24 26 30 30 29 28 26 26 25 24 23 23 22 22 21 21 21 20 19 19 18 17 17 17 17 16 16 16 15 14 14 14 13 12 12 12 12 12 11 11 11 10
11 10 11 11 12 12 13 17 18 10 6 13 19 16 12 11 11 12 13 16 19 21 25 32 32 30 29 26 26 26 25 24 23 23 23 22 21 22 21 21 20 19 19 19 18 17 17 17 16 16 16 15 15 15 14 14 14 13 13 12 12 12 12
11 12 12 13 13 13 14 18 19 17 14 7 9 7 5 6 8 11 14 17 19 22 27 31 28 26 27 27 25 26 25 24 24 23 23 23 22 22 23 22 21 21 21 20 19 18 18 18 17 17 17 17 16 16 16 15 15 15 14 14 14 13 13
11 12 13 14 14 14 16 17 17 17 18 15 11 7 5 6 5 11 18 20 20 25 31 29 22 20 22 24 24 25 25 25 24 24 24 24 23 23 23 22 22 22 21 21 20 20 19 19 18 18 18 18 18 18 17 16 16 16 16 16 15 15 14
11 12 13 14 15 15 14 15 16 18 18 18 16 11 3 3 6 10 15 17 17 22 28 22 14 19 20 22 23 23 24 25 24 25 25 24 24 23 23 23 22 23 22 22 21 21 20 20 20 19 19 19 19 18 18 18 17 17 17 17 16 16 15
11 11 12 13 14 15 15 14 16 18 18 17 17 16 14 8 1 5 9 10 11 16 20 18 11 13 15 17 20 21 23 24 24 24 25 25 24 24 23 23 23 23 23 22 22 22 21 21 21 21 20 20 20 20 19 19 19 18 18 18 18 17 16
12 13 13 14 14 15 16 15 15 17 19 19 18 17 17 14 12 9 3 3 3 9 15 15 14 12 9 11 15 17 20 23 24 24 24 24 25 24 23 23 23 23 22 22 22 22 22 22 21 21 21 21 21 21 20 20 20 20 19 19 18 18 18
12 13 14 15 15 15 15 15 15 17 18 19 19 18 17 15 16 17 12 9 7 3 9 11 14 15 12 11 13 14 17 20 21 23 23 24 24 25 25 24 23 23 22 22 22 21 21 22 22 22 22 21 21 21 21 21 21 21 20 20 19 19 19
12 13 14 14 14 14 14 14 15 17 19 19 19 19 18 16 17 17 16 14 9 4 5 6 12 15 13 13 13 14 16 18 19 21 22 24 24 24 25 24 24 23 23 23 22 21 21 21 22 22 22 22 22 21 21 21 21 22 23 22 20 19 19
12 12 13 13 13 13 12 13 15 17 18 19 20 20 18 17 17 16 16 18 15 13 13 10 10 12 13 14 15 16 16 17 18 19 20 23 24 24 24 24 24 24 24 24 24 23 22 22 22 22 22 22 22 22 22 21 21 23 25 26 24 22 19
11 12 12 13 12 13 12 12 14 16 17 18 19 20 19 18 18 17 18 18 17 17 18 15 11 10 12 14 15 16 17 16 18 19 19 21 23 24 24 23 23 23 24 24 24 24 24 23 23 22 22 22 22 23 23 22 22 23 25 27 29 27 23
11 11 12 12 12 12 13 13 14 15 15 16 17 18 18 17 18 17 17 18 17 16 17 16 12 10 11 12 13 15 17 17 17 19 21 22 22 22 23 23 22 23 24 24 24 23 24 24 23 23 23 23 23 23 23 23 23 24 26 27 29 30 28
10 11 11 11 11 12 13 14 14 15 14 14 15 16 16 16 17 17 16 17 17 16 16 17 15 14 13 12 10 12 16 19 18 18 21 22 20 19 21 22 22 23 24 24 24 23 24 24 24 23 23 23 23 23 24 24 24 25 27 29 29 30 30
10 10 10 10 10 11 13 13 14 15 15 14 15 16 15 16 17 17 16 16 16 15 15 16 16 17 16 14 11 10 12 15 17 16 17 18 17 17 18 20 22 22 22 22 23 24 24 23 23 23 23 23 23 23 24 25 25 25 26 28 29 30 31
9 9 9 10 10 11 13 13 13 14 14 14 15 16 15 16 17 17 16 15 15 14 14 14 15 17 18 17 13 11 11 12 13 13 12 11 13 16 19 20 19 19 20 21 22 23 23 22 23 23 23 24 23 23 23 24 25 27 28 27 28 28 29
8 9 9 10 10 10 12 12 12 13 13 12 14 15 15 15 15 16 15 15 14 13 13 14 15 16 18 18 16 14 15 15 13 10 8 8 11 15 19 20 20 20 19 19 19 20 21 21 21 22 22 23 24 23 23 23 24 26 29 29 29 29 30
8 9 9 10 10 10 12 13 11 12 13 12 13 14 14 14 14 14 14 14 14 13 13 14 15 16 17 18 19 18 18 18 16 12 8 9 13 17 20 21 21 21 19 18 17 18 19 19 20 20 21 22 23 23 23 23 23 25 28 30 31 32 33
8 9 9 9 10 11 13 12 11 11 12 12 13 14 14 13 13 14 14 14 14 14 14 14 15 16 16 17 18 19 19 19 18 16 13 11 13 16 19 22 22 19 17 19 20 18 17 18 18 19 20 21 22 23 24 23 23 25 27 29 32 33 35
8 9 9 10 11 12 12 11 10 12 13 13 13 14 13 13 13 14 14 14 14 14 15 15 16 15 15 17 18 19 19 19 18 17 15 14 15 17 18 20 21 18 16 20 23 21 18 17 17 18 20 20 20 22 24 24 24 25 26 28 30 33 35
8 9 10 10 11 11 11 10 10 12 13 12 12 13 13 13 13 13 13 13 13 14 14 15 16 15 15 16 17 18 19 19 18 17 16 14 15 16 17 18 20 19 17 19 23 24 22 19 17 17 18 19 19 20 21 22 23 24 26 27 29 31 33
9 10 10 11 11 10 10 11 11 12 13 13 13 13 13 13 13 13 13 13 13 14 14 14 15 15 15 15 15 17 18 18 18 18 18 17 16 15 15 15 17 19 19 20 23 26 27 26 23 19 17 18 19 20 21 21 23 24 25 27 28 29 32
9 10 11 12 11 11 12 12 11 12 13 13 14 13 13 13 13 13 13 13 13 13 14 14 14 14 14 14 14 15 17 19 18 17 16 16 17 17 16 14 14 17 19 20 22 24 26 27 25 22 19 19 20 22 22 22 23 25 26 26 27 27 29
8 9 10 12 12 13 13 13 13 13 13 13 13 13 12 13 14 14 14 13 13 13 13 14 13 13 13 13 13 13 16 18 19 19 18 18 16 14 15 15 13 14 17 18 19 21 23 23 21 20 20 20 21 23 23 21 22 24 26 28 30 30 30
10 10 10 11 12 13 14 14 15 15 14 13 12 13 13 13 13 14 15 14 13 13 14 14 13 13 13 14 13 13 14 15 16 17 18 17 14 12 13 14 13 14 16 16 16 19 22 21 18 17 19 19 20 22 22 21 20 21 22 24 27 29 31
12 12 12 11 11 12 13 15 16 16 15 14 13 13 13 13 13 14 15 15 15 15 15 14 13 13 14 15 14 14 14 14 15 15 15 14 14 12 12 13 13 13 14 14 15 16 18 18 17 17 18 19 19 20 20 20 20 20 19 19 20 23 28
13 14 14 13 13 12 13 14 15 15 16 16 14 14 14 14 14 15 15 16 16 16 16 15 14 14 14 14 15 15 15 14 14 14 15 14 13 13 13 13 13 13 12 12 13 14 15 16 16 16 18 19 18 18 19 19 20 18 14 13 14 16 20
13 15 16 16 16 15 13 12 13 15 16 16 16 15 15 15 15 15 16 17 17 17 17 16 15 15 15 15 15 15 15 15 14 14 14 13 12 12 12 12 12 12 12 11 12 13 15 15 14 14 16 16 15 16 17 17 17 15 11 10 12 14 15
14 16 17 18 18 17 15 14 14 14 16 17 17 16 16 16 16 16 16 17 17 16 17 17 16 15 15 15 15 15 14 14 13 12 12 13 13 13 12 12 12 13 13 13 13 15 16 17 17 16 16 15 14 15 15 13 14 15 13 10 11 12 13
14 16 17 18 19 18 17 17 16 15 16 16 16 17 17 17 17 17 17 17 17 16 17 17 17 16 16 15 14 14 14 13 13 13 13 13 14 14 14 14 13 14 16 18 19 20 19 20 22 23 22 22 23 22 19 16 17 20 19 17 17 18 19
15 15 16 18 19 19 19 18 18 17 17 17 17 17 17 17 18 18 17 17 17 17 18 18 18 17 17 15 14 13 13 13 14 14 14 13 13 13 14 15 15 16 17 20 22 22 21 20 22 24 23 24 26 27 27 26 27 28 28 28 29 29 28
15 16 17 17 17 18 19 20 19 19 18 17 17 17 17 18 18 18 18 18 18 18 19 19 19 19 19 17 16 14 14 14 14 14 14 14 13 13 13 15 16 15 15 16 18 20 20 20 22 23 23 23 24 27 29 29 29 29 29 29 29 28 27

ECMWFFLT1_925_spd_093.txt.gz
Wind_Speed
9 8 8 8 7 8 8 8 8 8 14 17 14 14 25 30 31 31 32 33 31 29 27 25 27 28 27 26 25 25 23 20 21 19 18 19 19 19 20 18 17 17 18 18 17 17 15 14 16 16 15 15 14 14 14 13 12 12 12 12 12 11 10
10 8 8 9 8 8 12 15 14 11 16 24 22 16 17 26 32 32 33 34 32 30 28 25 26 27 27 26 24 24 24 22 22 20 18 19 19 19 19 19 18 17 17 17 16 16 15 14 16 18 16 15 15 14 15 14 12 13 13 13 13 11 10
8 8 7 8 9 8 11 14 16 17 19 24 26 20 14 16 28 33 34 34 32 30 29 26 26 26 26 25 24 24 24 22 22 22 20 19 19 19 18 18 18 16 15 16 15 15 15 14 16 18 16 16 16 15 14 14 13 13 13 13 13 11 11
5 4 4 4 6 6 7 10 13 16 18 16 17 17 10 7 19 28 32 35 33 31 30 27 26 26 25 25 24 24 25 24 23 23 22 20 19 18 18 18 18 17 16 15 15 14 14 14 15 16 15 14 16 15 14 14 14 13 13 12 13 12 11
7 5 4 3 3 4 3 8 13 15 14 10 11 18 16 10 13 20 26 31 31 30 30 27 25 26 25 25 25 24 25 25 24 23 23 22 20 19 19 19 18 18 17 16 15 15 15 15 15 16 15 15 15 16 15 14 14 14 13 13 13 12 11
7 4 3 3 2 2 2 2 8 13 16 16 16 22 21 15 16 20 24 28 29 30 30 28 25 24 24 24 24 23 24 25 25 24 24 23 21 20 20 20 19 18 18 17 16 16 16 18 18 17 17 16 16 17 16 15 15 14 14 14 13 12 12
6 4 4 6 5 3 3 4 6 9 14 15 12 14 16 15 17 19 20 22 26 30 31 29 27 25 23 24 23 22 23 25 26 25 25 24 22 22 21 20 20 19 19 18 18 17 17 18 19 19 19 18 17 17 17 16 16 15 15 14 13 13 12
7 7 9 9 9 8 5 4 7 9 12 14 10 6 7 9 10 11 9 8 10 14 18 21 24 24 22 24 24 19 19 24 26 25 25 25 23 23 22 22 21 20 20 19 20 20 18 18 19 19 19 19 19 18 17 18 18 17 17 16 15 14 13
9 10 11 11 11 10 10 9 10 12 14 14 12 12 13 11 11 11 7 7 7 9 12 14 18 20 20 23 24 18 15 18 23 25 24 24 24 23 23 23 22 21 21 21 21 22 22 21 20 20 20 19 20 20 19 19 19 19 19 19 17 16 16
9 9 11 11 11 11 12 13 12 11 13 12 11 13 15 14 14 14 14 15 13 14 15 15 17 19 18 20 21 19 16 15 18 23 25 24 24 23 22 24 23 22 23 22 22 22 23 23 23 21 21 21 20 20 21 21 21 21 21 21 20 19 18
8 8 9 10 10 10 11 12 12 12 12 13 12 12 12 13 14 15 13 10 11 15 15 15 16 16 15 17 17 15 15 14 14 18 22 21 22 22 22 23 24 24 24 24 23 23 23 24 25 24 23 23 22 22 22 22 22 23 22 22 21 21 20
8 8 8 10 10 9 8 9 11 13 14 14 15 13 11 11 12 13 14 12 11 13 13 11 12 12 11 14 17 16 17 16 16 14 17 19 19 20 19 19 21 23 25 26 24 23 24 24 25 25 25 25 24 23 23 23 22 23 24 23 22 21 20
8 8 8 9 9 9 9 9 10 13 14 15 16 17 14 12 12 12 13 11 7 6 8 8 9 11 9 8 12 15 15 14 16 19 20 20 19 19 18 16 16 17 20 26 28 25 23 25 26 27 26 27 27 26 24 24 24 24 24 24 23 22 22
9 9 10 10 10 10 10 9 9 12 14 15 17 20 19 17 16 16 16 13 9 4 5 7 8 8 8 7 9 11 11 12 14 20 21 20 18 18 19 18 16 13 12 18 28 30 26 24 26 29 28 27 28 29 27 26 25 25 25 24 24 23 23
10 11 11 12 11 10 9 8 8 10 13 14 17 18 19 19 17 16 17 15 13 9 4 5 7 6 6 7 9 10 9 10 14 18 19 18 18 18 21 22 19 17 13 11 18 28 31 28 26 28 31 29 28 30 30 28 28 28 27 27 26 26 26
11 11 12 12 11 10 9 8 9 10 13 15 16 15 15 17 17 16 17 16 15 15 12 7 6 6 7 8 7 6 6 7 12 17 17 18 18 18 21 23 21 21 21 15 12 17 26 30 29 27 30 33 31 30 31 31 30 30 30 30 29 29 29
11 10 11 10 9 9 9 9 10 12 14 17 16 14 14 16 16 17 17 16 17 17 15 12 10 8 8 8 7 7 7 8 9 12 14 16 16 15 15 17 18 20 24 24 17 12 16 25 31 30 30 32 34 33 33 33 32 31 30 31 31 31 31
9 8 9 9 8 8 8 8 10 12 14 16 18 17 16 16 16 16 16 16 16 16 15 14 13 11 10 9 8 8 7 7 7 9 10 12 13 13 12 14 16 17 21 26 25 19 16 18 24 29 31 31 34 35 34 34 34 33 31 30 31 32 32
9 8 7 7 7 7 7 8 10 12 13 15 17 19 17 16 16 15 16 17 17 16 17 17 15 12 10 10 10 10 9 7 6 6 7 8 8 9 10 12 13 14 15 20 24 24 22 18 17 20 25 28 31 34 35 35 34 34 33 31 31 32 33
10 8 7 6 6 6 8 9 11 13 14 15 17 18 17 17 17 15 17 19 18 17 18 17 16 14 12 11 11 10 9 8 7 5 3 4 5 7 7 8 9 10 12 15 20 23 25 23 18 16 17 19 22 27 32 34 35 35 35 33 32 32 34
10 9 7 5 5 6 9 11 12 14 14 14 16 17 16 16 17 16 17 19 18 17 17 16 16 16 15 15 14 12 10 8 7 7 5 2 1 4 6 7 8 9 11 13 17 20 23 25 24 22 19 17 17 18 21 25 28 30 33 34 34 33 34
8 9 8 7 7 8 10 10 11 13 13 13 15 18 17 16 16 15 15 16 17 17 16 16 15 15 15 16 15 14 12 11 10 10 7 4 3 3 3 4 5 7 9 12 14 17 19 22 24 24 22 20 19 19 20 21 21 21 24 28 32 35 36
9 10 11 11 11 10 10 11 10 12 12 12 13 17 18 16 15 16 15 15 15 16 15 15 15 15 15 14 14 14 13 12 12 11 9 7 7 7 7 5 5 6 7 9 11 13 15 17 19 19 20 21 21 21 21 23 25 23 21 20 23 28 34
13 15 14 14 12 10 10 13 13 13 13 14 13 15 17 17 15 15 16 15 14 15 15 15 13 13 13 12 11 12 12 12 12 12 11 9 8 9 8 7 6 6 6 7 9 10 11 14 16 17 18 20 22 22 22 24 26 26 25 23 21 20 24
15 17 16 13 12 12 13 14 14 14 15 17 17 15 15 16 15 14 14 14 13 14 15 15 13 13 13 12 10 9 10 10 11 11 10 9 8 7 7 7 7 7 6 6 8 9 9 10 12 15 17 19 20 22 22 23 25 25 26 26 25 24 23
14 16 15 14 14 14 15 14 15 16 17 18 17 16 15 15 14 13 13 12 12 13 14 14 13 12 13 12 9 9 10 11 9 8 8 7 7 7 5 6 6 6 7 7 6 7 8 9 10 12 15 16 17 18 19 21 22 21 20 21 22 24 24
16 15 15 15 15 15 15 15 16 16 16 16 15 14 15 15 13 12 11 11 11 12 12 12 12 11 11 11 10 10 11 12 10 8 6 5 7 7 5 5 6 6 6 6 6 6 7 9 10 12 15 15 15 15 16 17 16 14 15 16 16 17 18
15 14 15 17 17 16 15 16 16 15 15 15 14 13 14 14 12 11 11 11 11 12 12 11 11 11 10 9 9 11 12 11 11 11 10 8 8 8 6 5 6 7 6 5 5 6 7 8 9 12 14 14 12 12 11 10 10 12 15 18 18 16 16
13 13 14 16 17 16 15 16 15 14 14 14 14 13 13 13 12 12 11 12 12 11 12 13 13 13 10 8 9 12 13 12 11 13 14 13 11 8 7 7 8 8 8 6 6 8 8 8 8 10 11 12 12 11 8 7 11 16 20 23 24 23 21
13 12 12 14 16 14 13 13 13 13 14 14 13 13 13 13 13 13 12 12 12 12 13 14 14 13 12 11 12 13 13 13 13 14 15 16 14 10 9 10 10 10 9 8 8 9 10 10 10 10 11 12 12 10 7 8 12 16 21 25 26 23 19
13 12 11 12 12 11 10 10 11 12 13 13 12 12 13 13 14 14 13 13 13 13 14 15 14 14 14 14 14 14 14 14 14 14 15 16 15 12 13 14 12 11 10 8 7 8 10 13 14 12 11 11 11 10 9 8 10 12 15 17 18 17 15
14 12 9 8 8 7 7 8 9 10 11 11 11 11 11 12 12 13 14 14 13 13 15 15 15 14 14 14 15 15 15 15 15 15 15 15 15 14 15 16 14 12 11 10 9 9 10 11 11 10 8 8 8 9 9 9 10 12 12 11 11 12 13
11 9 7 6 5 6 7 7 8 9 9 9 9 10 10 10 10 11 12 13 12 12 14 14 14 14 15 15 15 16 16 15 16 17 17 17 16 14 13 13 12 11 11 11 12 10 8 8 9 8 8 8 8 8 9 10 11 12 12 11 9 10 11
9 8 7 6 6 7 7 8 8 9 9 9 9 9 8 8 8 9 11 11 11 12 13 13 14 15 15 16 17 17 17 17 17 17 17 17 17 15 13 12 12 11 10 10 10 9 9 11 12 13 12 12 13 14 15 15 15 15 13 11 9 9 10
8 8 9 8 8 9 8 8 9 9 9 9 9 10 10 10 9 9 11 11 12 12 12 13 13 14 16 17 18 19 19 18 18 17 18 18 18 17 15 14 15 15 16 15 14 13 14 16 17 16 15 15 16 16 18 20 20 18 15 13 12 13 14
9 9 9 9 8 8 7 7 9 9 8 10 11 12 13 13 13 12 12 12 13 13 13 14 14 14 14 15 16 18 20 21 21 20 20 19 19 19 18 18 16 15 16 17 17 16 17 19 19 17 15 15 16 15 16 18 19 17 17 16 16 17 19
9 9 8 8 7 7 7 7 8 9 11 12 12 13 14 14 14 14 13 13 14 13 13 14 16 15 13 12 13 15 18 21 22 22 22 21 20 18 18 18 16 14 14 14 15 15 15 16 17 16 14 15 16 16 16 16 16 15 15 15 15 17 18
8 8 7 7 7 7 6 7 9 11 12 12 12 13 14 14 15 15 14 14 15 15 14 14 15 15 15 14 13 15 16 18 20 22 23 23 22 19 18 18 18 18 16 14 14 15 15 15 15 15 15 16 17 18 19 17 14 14 15 15 15 16 16

ECMWFFLT1_925_spd_096.txt.gz
Wind_Speed
11 10 9 7 7 7 8 12 12 12 17 21 25 28 28 31 34 34 35 35 35 33 31 31 30 29 28 27 27 25 23 23 23 21 23 23 20 21 23 23 23 22 21 21 20 19 18 17 17 16 14 15 15 14 14 13 13 13 12 12 12 11 11
9 9 8 7 7 7 8 13 15 14 16 19 23 25 24 28 34 35 36 36 36 36 34 32 31 30 30 29 27 27 25 23 22 22 23 23 20 20 22 21 21 22 21 21 20 19 18 17 17 17 15 16 16 16 15 15 14 14 13 13 13 12 11
8 8 8 8 8 7 9 13 15 16 17 19 23 22 18 22 32 35 36 36 35 35 35 33 32 31 30 29 28 28 28 25 23 23 23 23 21 20 21 20 20 20 19 20 20 19 17 17 17 18 17 17 17 16 16 16 16 15 14 14 14 13 11
6 6 6 6 7 8 11 14 16 16 19 22 23 20 11 13 26 33 34 37 36 34 35 34 34 33 32 31 30 29 30 27 25 24 24 23 23 22 21 21 21 19 18 19 20 20 19 17 18 19 19 19 18 17 17 16 16 16 15 14 15 14 12
6 5 5 5 5 6 7 12 14 12 12 13 14 12 5 4 12 23 27 30 32 34 37 37 35 34 33 33 32 30 31 29 27 25 24 23 23 23 23 22 22 21 20 20 20 21 20 19 19 19 20 21 20 18 17 17 16 16 16 15 15 14 13
7 6 4 2 3 3 2 4 7 10 9 6 7 7 3 2 7 16 21 22 24 27 30 33 34 33 32 32 31 30 30 30 28 27 26 24 22 23 23 22 21 23 22 20 19 20 21 20 19 19 19 21 21 18 17 17 16 16 17 16 15 15 14
8 6 5 4 3 4 5 6 10 13 13 13 14 15 16 13 12 19 25 26 28 28 26 27 29 30 30 31 30 29 30 30 29 27 27 26 25 24 23 22 22 22 22 22 21 21 21 21 21 20 18 20 21 18 17 17 16 16 16 16 16 15 14
10 8 7 7 7 7 7 7 10 15 16 17 19 21 22 19 17 18 22 27 32 34 32 29 29 30 30 30 30 30 30 30 30 29 27 27 27 26 25 24 23 22 22 23 23 22 22 22 22 22 21 21 21 19 18 18 18 17 17 16 16 15 14
11 10 9 9 8 8 8 6 5 10 15 16 16 18 19 17 15 13 15 22 27 30 31 31 29 31 32 30 30 30 29 29 29 29 28 27 27 27 27 26 25 24 24 24 23 23 23 23 23 24 24 23 22 21 20 19 19 19 18 17 17 16 15
10 9 9 9 8 8 9 7 3 7 13 13 12 14 16 15 16 16 18 22 26 29 31 28 26 28 31 30 28 26 25 26 28 29 29 29 28 28 28 27 26 26 26 25 24 24 25 25 24 24 25 26 24 23 22 21 20 20 20 19 18 17 16
9 8 8 9 9 8 9 9 6 6 9 12 13 13 15 18 20 24 24 23 25 28 28 26 24 25 27 27 25 22 19 20 24 27 29 29 28 28 28 28 27 27 27 26 26 26 26 26 26 25 25 26 26 24 23 22 22 22 22 21 20 18 17
8 8 8 8 8 8 8 9 8 7 8 12 15 14 15 18 20 21 21 21 23 23 24 27 24 21 24 24 23 25 24 21 21 24 26 28 28 27 27 27 27 27 27 27 27 27 27 27 28 28 27 27 26 25 24 22 22 23 24 24 23 21 19
9 8 7 7 7 7 8 8 8 10 12 12 14 14 14 16 18 18 18 18 18 19 24 29 25 21 24 24 23 26 28 24 21 22 25 28 28 27 26 24 23 26 27 28 28 28 28 28 29 30 31 30 28 27 26 24 22 22 23 24 25 24 23
11 9 7 6 7 7 8 8 7 10 13 12 12 11 10 11 13 17 19 20 18 18 21 26 25 24 24 23 22 25 26 24 23 22 23 26 27 26 26 23 20 21 25 28 29 29 29 29 29 30 31 31 31 29 27 26 25 24 24 25 25 25 25
12 11 8 7 7 8 8 8 7 10 13 12 12 14 13 11 9 11 17 19 18 19 20 23 23 22 21 20 20 21 22 21 22 23 23 25 26 25 25 24 20 18 20 24 26 29 30 30 29 29 31 32 32 31 30 28 27 26 25 26 26 26 26
12 11 9 8 8 7 7 9 10 12 14 13 14 15 13 11 9 8 11 12 10 12 15 16 17 17 17 18 17 16 17 17 18 20 21 23 26 26 24 24 21 19 19 21 23 25 28 29 29 29 30 32 33 33 32 31 30 29 28 28 27 27 27
11 10 9 7 7 7 7 9 11 14 15 14 14 15 14 12 12 11 12 14 12 11 11 10 10 10 9 10 11 11 12 13 15 17 19 21 24 26 25 25 23 21 22 22 23 23 24 27 29 29 29 30 32 34 34 33 32 32 31 30 30 30 29
9 8 7 6 6 6 7 8 10 13 15 15 16 16 15 15 15 15 16 15 13 12 12 12 11 12 10 6 5 7 8 10 12 13 15 18 20 22 24 23 23 23 24 25 26 25 24 25 27 29 31 30 30 33 35 35 35 34 33 32 31 32 32
8 7 7 6 5 5 6 8 10 13 15 17 18 17 16 17 18 18 17 18 17 15 13 11 11 12 11 9 6 5 5 7 10 11 13 15 18 20 21 22 23 24 24 25 26 24 25 26 25 25 27 29 29 30 33 35 36 35 34 33 33 33 33
8 6 7 7 6 5 7 10 13 15 17 19 20 19 17 18 19 19 18 19 19 19 17 15 13 12 10 9 7 5 5 4 6 7 8 11 13 15 17 19 19 20 21 22 22 21 22 25 25 22 21 22 24 26 29 33 35 35 35 35 34 33 34
7 6 6 7 7 7 9 12 14 15 17 19 21 20 18 17 18 20 20 20 20 19 19 18 17 15 12 10 8 7 8 8 7 6 3 3 6 7 9 11 11 12 14 15 16 17 18 20 23 24 21 19 18 18 20 23 28 30 32 33 34 34 33
7 6 6 7 10 11 12 14 15 15 16 18 20 21 20 17 16 17 19 20 20 19 19 19 17 15 13 11 11 10 9 9 8 8 7 4 1 1 2 3 4 5 7 8 10 12 13 14 17 20 21 20 18 15 14 14 16 18 22 26 29 32 34
9 9 10 13 17 19 20 20 20 18 17 18 20 20 19 18 16 16 17 18 19 18 18 18 18 15 13 13 14 14 13 11 9 8 7 6 4 3 3 3 2 2 3 4 6 7 9 11 13 15 17 17 17 15 14 12 12 13 14 16 19 23 27
14 16 17 19 22 24 25 25 25 23 20 20 20 19 17 16 16 17 17 17 18 18 18 18 18 16 14 13 13 14 14 11 10 8 7 7 6 5 4 5 4 3 3 3 5 6 7 9 11 12 13 14 15 15 13 12 13 15 15 16 16 16 18
16 19 21 22 23 24 25 26 26 26 24 22 21 19 17 15 15 16 17 17 18 18 19 18 17 15 14 12 10 10 10 9 7 6 5 7 8 7 4 4 4 3 3 3 4 4 5 7 9 10 10 11 12 13 13 13 14 17 19 19 18 17 17
15 18 20 22 23 23 24 27 27 25 25 24 21 19 18 16 16 16 16 16 17 19 20 19 16 14 11 10 9 9 10 9 8 8 7 8 10 10 6 4 4 4 3 2 2 2 3 4 5 7 8 8 9 10 11 12 15 18 20 20 19 19 18
19 20 21 22 22 21 22 25 25 23 23 22 21 20 18 16 16 17 15 15 18 20 19 17 15 14 11 9 9 9 10 11 11 12 12 11 13 14 11 6 5 5 6 5 4 4 3 3 4 5 6 7 9 10 10 12 14 17 19 18 19 19 19
19 20 20 20 20 20 19 20 22 22 21 20 19 19 18 16 16 17 16 17 19 19 17 15 16 16 14 12 12 11 11 12 12 14 16 15 16 17 15 10 8 8 9 8 7 7 6 6 6 6 6 6 7 9 11 12 13 14 14 14 15 16 17
18 18 18 18 18 17 16 17 19 19 19 18 17 17 17 17 16 17 17 18 18 17 16 16 16 16 15 15 15 13 13 13 13 15 16 17 17 18 17 14 12 12 12 11 10 10 8 7 8 8 7 6 6 7 9 10 11 12 12 13 15 17 18
19 19 17 16 15 14 13 14 16 16 16 16 16 16 16 16 16 16 17 17 16 16 16 16 15 15 16 16 16 16 16 15 15 15 16 17 18 19 19 17 16 15 14 13 12 11 9 9 10 9 8 8 8 8 7 8 9 10 11 11 13 17 20
19 19 16 14 12 11 11 11 12 14 14 14 14 14 15 15 15 15 16 16 15 15 16 16 15 15 16 16 17 17 18 17 16 17 18 18 19 20 19 18 17 16 15 14 14 13 12 11 10 9 8 8 10 10 9 9 10 11 10 9 10 12 14
18 18 17 15 13 11 10 8 9 11 12 12 13 12 12 12 12 13 15 15 15 15 16 16 16 16 17 17 18 18 19 20 19 19 20 19 19 19 19 18 18 17 15 14 14 14 14 12 8 7 9 9 11 13 14 15 15 15 16 15 14 13 12
16 17 18 16 15 13 11 9 7 8 9 10 11 12 12 11 12 12 13 14 14 15 15 15 16 17 17 18 18 19 20 20 20 21 21 20 19 20 19 19 19 18 18 17 15 15 15 12 10 10 12 12 13 14 15 15 16 17 18 19 18 17 16
17 18 18 17 15 12 10 8 6 5 7 9 11 12 12 12 13 14 14 14 14 15 16 16 16 17 18 18 18 18 19 20 21 22 23 22 22 21 20 20 21 20 17 16 15 15 15 15 15 15 16 15 15 15 14 14 15 16 17 17 16 16 16
19 19 17 15 12 10 8 6 5 5 7 9 10 11 12 12 13 14 14 14 14 15 16 17 17 17 17 18 18 17 18 19 21 22 23 23 23 22 20 19 20 20 18 16 14 14 16 18 17 17 17 16 15 15 15 16 15 16 17 17 16 15 16
20 18 15 13 10 7 6 6 6 7 8 8 9 10 11 12 12 12 12 12 12 14 16 17 17 17 17 17 18 17 17 19 21 21 22 23 24 24 22 20 17 17 18 18 16 14 15 16 17 17 17 17 15 14 16 17 17 17 17 17 16 16 17
19 17 13 11 9 8 9 9 8 7 7 7 8 9 10 10 11 11 12 12 11 13 14 15 16 17 17 17 17 17 17 19 20 20 20 21 22 24 24 23 21 18 16 17 18 18 17 16 16 16 16 16 15 14 15 16 17 18 18 18 17 17 18
18 16 13 12 11 11 11 9 7 6 7 7 8 8 9 9 10 11 12 12 12 12 13 14 14 15 16 16 16 16 17 18 19 19 19 20 22 23 23 23 23 22 19 18 18 19 19 17 15 14 13 12 14 16 16 16 17 18 18 17 17 18 19

ECMWFFLT1_925_spd_102.txt.gz
Wind_Speed
10 8 7 5 5 6 9 14 19 20 21 24 25 26 27 27 27 28 28 30 30 30 31 31 31 30 29 28 27 27 26 22 19 18 17 18 19 18 17 16 15 15 14 13 12 11 12 13 13 12 11 10 9 9 10 10 10 9 8 8 7 6 6
11 9 7 6 6 6 8 13 17 19 21 23 25 26 26 27 28 29 29 30 30 30 31 31 31 30 28 27 26 27 27 24 20 18 17 17 18 18 17 15 14 14 13 12 12 11 11 12 13 12 11 10 10 10 10 11 11 10 9 8 8 7 7
11 11 9 7 6 5 6 11 16 19 22 23 24 25 27 28 30 32 31 31 31 30 29 31 31 30 29 27 26 27 27 25 22 19 17 17 18 17 16 15 14 13 13 12 12 12 12 12 12 12 11 11 10 10 10 10 11 11 10 9 8 8 8
10 11 8 6 6 6 6 9 12 16 20 23 26 28 29 31 31 31 32 32 31 30 30 31 31 31 29 28 27 28 28 27 23 20 18 17 17 16 16 16 15 14 13 13 13 12 12 13 13 12 12 11 11 11 11 10 11 11 11 10 9 10 10
6 7 6 5 6 5 5 7 8 11 18 23 26 28 29 29 29 29 29 30 30 31 31 31 31 30 29 28 27 27 28 28 24 21 19 18 17 17 16 16 15 15 14 13 13 13 13 13 13 13 13 12 11 11 11 11 11 11 11 11 11 11 11
5 7 6 5 5 4 5 7 6 9 14 19 22 24 25 26 26 27 27 26 27 29 28 28 28 29 29 28 27 27 27 27 25 22 21 19 18 18 18 16 15 15 15 14 14 13 13 13 13 13 13 13 12 12 12 11 12 11 12 12 12 12 13
7 7 6 5 5 6 6 5 6 4 6 11 17 22 25 26 26 26 27 27 27 27 26 26 27 28 29 28 27 26 27 27 26 23 22 20 19 19 19 17 16 16 15 14 14 13 13 13 13 13 13 13 14 13 13 13 13 13 13 13 13 13 13
8 7 7 7 7 7 9 11 10 6 7 11 16 19 22 25 26 26 27 27 27 27 27 27 27 28 29 29 28 27 27 27 26 25 23 22 21 20 20 19 17 16 16 15 14 14 14 14 13 13 13 14 15 15 14 14 14 15 15 15 15 14 14
9 9 8 8 8 9 10 11 10 11 13 14 13 12 14 19 24 27 29 29 27 27 27 27 27 28 28 27 28 28 27 26 26 25 24 23 23 22 22 20 18 17 17 17 16 15 15 15 15 14 14 14 15 16 16 16 16 16 16 16 16 15 15
8 9 8 8 8 8 9 9 8 10 13 12 10 8 6 5 8 15 21 23 23 23 23 23 24 24 25 26 26 27 26 25 25 25 25 25 24 24 23 22 20 19 18 17 17 17 16 16 16 16 16 16 16 16 17 17 17 16 16 16 16 16 15
7 7 7 7 8 8 8 8 7 10 11 10 9 7 5 1 2 7 13 18 23 22 20 19 19 19 21 23 24 25 25 25 25 25 25 26 25 25 25 24 21 20 19 18 18 18 18 17 17 17 17 17 17 17 17 17 18 17 17 17 17 17 16
6 6 6 5 6 8 8 8 9 10 7 3 3 7 9 10 14 15 15 15 17 16 14 15 16 16 17 20 22 24 24 24 25 25 26 26 25 25 25 25 24 22 21 20 19 19 19 19 18 18 18 18 18 18 18 18 18 18 18 18 19 19 18
6 6 4 3 4 6 7 6 6 5 1 1 3 5 10 13 14 14 11 9 7 6 8 11 14 17 18 18 19 20 22 24 24 25 24 24 24 24 24 24 24 24 22 21 20 20 20 20 20 21 20 20 20 20 20 20 20 21 20 20 20 21 20
6 6 5 5 5 6 7 6 6 9 8 6 6 6 8 7 7 8 9 12 12 9 9 11 15 19 20 19 18 19 22 24 24 23 22 22 23 23 23 23 23 23 23 22 22 22 22 22 22 23 23 23 22 21 21 21 22 23 22 22 21 22 22
7 7 7 7 7 7 8 8 8 11 13 11 9 6 4 3 2 4 5 8 10 10 9 11 15 18 19 18 20 22 22 20 20 20 19 19 21 22 22 23 22 22 21 21 21 22 22 22 22 23 24 25 24 23 23 23 24 24 24 24 23 23 23
8 8 8 8 8 8 8 9 11 13 15 14 13 12 12 12 9 7 5 2 3 6 8 10 13 15 14 14 17 20 17 14 16 20 19 17 18 19 20 21 20 20 19 18 18 18 19 21 22 23 24 25 25 25 24 24 25 25 25 25 25 25 25
9 9 8 8 8 8 8 10 12 14 15 15 16 16 16 16 16 15 13 10 7 6 8 10 11 13 14 14 15 17 15 14 17 20 19 17 17 17 18 18 17 17 16 16 16 15 15 16 17 20 23 24 25 26 26 26 25 25 25 25 25 26 26
9 8 9 8 8 9 9 9 11 13 14 16 17 18 18 19 20 20 18 15 14 12 9 7 6 6 8 11 15 17 16 16 16 16 16 16 17 17 17 16 16 16 17 17 16 17 17 16 15 15 17 20 23 24 25 26 26 25 25 26 25 26 27
9 9 9 8 8 9 9 9 12 14 16 17 19 20 20 22 23 22 20 20 19 19 18 17 16 15 13 10 7 10 13 12 10 9 10 12 13 12 12 13 14 16 18 19 19 20 21 21 20 17 15 17 20 21 22 24 24 24 24 24 25 25 26
10 9 9 9 9 10 10 12 15 17 19 20 21 22 23 24 25 25 25 24 24 24 24 24 24 23 22 20 17 13 10 9 8 6 3 2 5 6 7 9 11 13 16 18 20 22 23 24 23 21 19 20 22 22 22 23 23 23 22 23 23 23 24
9 9 9 9 9 10 13 16 18 19 20 23 24 24 25 26 27 28 28 28 28 28 27 26 26 25 23 22 22 21 19 17 16 14 12 10 7 7 6 6 8 11 12 12 14 16 18 19 19 19 19 20 21 21 22 23 22 22 22 22 22 22 23
7 8 9 10 11 13 16 19 20 19 21 24 25 26 26 26 27 29 30 29 30 30 29 29 28 26 26 25 23 21 20 20 20 19 17 15 12 10 7 4 1 4 6 7 8 9 11 14 15 16 17 17 17 17 18 19 19 20 21 21 20 19 20
9 10 11 14 16 18 20 21 22 23 24 25 26 25 25 25 26 28 29 29 30 30 30 29 28 26 26 25 24 23 22 21 21 21 19 17 14 11 7 7 8 7 3 1 4 6 9 11 12 13 13 14 14 14 15 15 15 16 18 18 18 18 18
13 13 13 16 20 22 22 24 25 25 26 26 25 23 23 22 24 27 28 28 29 29 29 27 25 25 24 23 22 22 22 22 22 20 18 16 14 10 6 5 7 9 8 6 4 2 3 6 8 8 8 8 9 10 11 12 13 13 15 15 15 16 17
13 15 15 18 21 22 22 24 25 25 25 25 23 21 21 20 21 25 26 26 27 28 27 25 23 23 23 22 20 20 20 21 21 20 19 17 13 9 4 2 3 5 6 6 6 6 5 4 5 5 5 5 7 7 8 9 8 9 11 12 13 14 15
12 15 17 19 21 22 22 24 25 24 23 22 20 19 19 18 20 23 23 24 25 25 24 22 21 21 20 20 19 19 19 20 20 20 20 19 15 11 5 2 1 3 5 5 4 6 6 6 5 5 5 4 5 6 6 6 6 6 7 8 9 11 13
12 14 17 19 21 23 24 24 24 23 21 19 17 16 16 17 19 21 20 21 23 22 21 20 19 18 18 18 18 19 19 20 20 20 20 18 17 15 12 8 6 5 5 5 4 4 5 5 5 4 4 4 4 3 3 4 4 5 7 6 6 7 9
14 15 16 19 21 22 24 23 22 21 19 16 15 14 14 15 18 19 19 20 20 18 17 18 17 17 17 17 18 18 18 19 18 18 18 17 17 17 17 15 13 11 9 8 7 6 5 5 6 8 10 10 11 11 10 8 6 6 6 6 4 3 3
14 14 15 17 19 21 23 23 20 19 17 14 13 13 12 14 17 19 18 19 17 15 15 16 16 16 16 17 17 17 17 18 17 17 17 17 16 17 18 17 16 15 14 13 11 10 9 8 9 10 11 12 12 13 13 11 10 10 9 7 6 3 2
14 13 12 15 18 20 22 22 21 19 17 14 13 12 12 13 16 18 18 17 14 13 13 14 14 15 16 16 16 16 17 17 17 16 16 16 15 15 17 17 16 16 15 15 15 14 14 13 11 11 12 12 12 12 12 11 10 10 12 11 9 5 3
14 15 13 14 16 17 18 19 19 18 17 15 13 13 13 13 15 16 16 14 13 12 12 12 13 14 15 15 15 15 15 16 16 16 16 16 16 15 16 16 15 15 15 14 14 14 14 14 14 14 14 14 13 12 12 11 10 9 11 12 11 8 6
14 16 16 16 16 17 17 18 17 17 17 15 13 12 12 12 12 14 13 11 10 11 11 11 12 13 14 14 14 15 15 15 16 16 15 16 16 16 16 15 15 15 14 14 14 14 14 14 14 14 14 14 14 13 12 12 11 9 9 10 11 10 7
15 17 18 18 19 19 19 19 18 17 16 15 12 11 10 10 10 10 9 8 9 9 8 10 12 13 13 13 13 14 15 15 15 15 16 16 16 15 15 15 14 15 15 15 15 15 15 15 14 14 14 13 12 12 13 13 12 11 11 10 10 10 9
17 18 19 19 19 19 19 19 18 17 15 14 12 11 10 10 9 8 7 7 8 8 8 10 11 11 12 12 12 13 13 13 13 14 14 15 15 15 15 16 15 14 14 15 15 16 16 15 15 14 14 12 11 11 13 14 14 14 14 13 13 12 12
18 19 19 18 17 16 16 17 17 16 14 13 12 11 11 11 10 9 9 9 8 8 9 11 11 11 11 12 12 13 13 12 11 12 12 13 13 14 14 14 14 14 12 11 11 12 13 13 13 13 12 10 9 10 12 14 15 15 15 15 14 13 12
18 18 18 18 16 15 15 16 15 15 14 12 11 11 12 12 12 11 11 10 9 9 10 11 11 11 12 12 12 13 13 12 11 11 11 12 12 13 13 12 11 12 12 11 9 8 8 9 10 11 11 9 8 8 11 13 13 14 14 15 14 13 12
20 19 19 19 18 18 17 16 15 14 13 12 11 11 12 12 12 11 11 11 10 10 10 11 11 12 12 12 11 11 12 12 12 11 11 11 12 12 14 14 13 11 11 11 10 8 6 6 7 8 9 10 9 8 9 10 11 12 14 15 14 13 12
22 22 22 21 20 19 18 16 14 13 13 12 11 11 11 11 10 10 10 10 10 10 11 11 11 12 12 10 10 9 10 10 10 11 11 11 11 12 13 15 15 14 13 13 12 10 8 6 6 6 7 9 10 10 10 10 11 13 14 16 15 14 12

ECMWFFLT1_925_spd_105.txt.gz
Wind_Speed
14 11 9 8 10 11 12 14 16 16 17 19 20 21 20 20 20 21 21 25 28 28 29 29 28 28 28 28 27 26 25 23 21 20 18 17 17 17 17 16 16 16 14 13 12 12 12 11 11 12 11 11 10 8 8 8 7 7 6 6 5 4 3
13 11 9 7 8 10 11 14 15 16 18 19 19 20 20 20 21 22 23 26 29 28 30 30 29 29 29 29 29 27 27 25 23 21 19 18 18 17 17 17 17 16 15 14 13 12 11 10 11 13 12 11 9 8 7 7 7 7 6 6 5 5 4
13 12 10 7 6 6 8 11 13 15 18 18 19 20 20 21 23 25 25 27 28 27 28 30 31 30 30 30 29 28 28 26 24 22 20 18 17 17 18 18 17 16 15 14 13 12 10 9 10 12 12 11 9 8 7 6 6 7 7 7 6 5 4
13 13 12 9 7 6 7 9 11 15 17 17 19 20 21 22 24 25 26 26 26 27 28 31 30 30 30 30 29 29 28 27 26 24 21 18 17 17 17 18 17 16 15 14 13 12 11 10 9 10 11 10 9 7 7 7 6 7 8 8 7 6 5
14 13 12 10 9 7 7 9 12 15 15 15 17 17 17 18 19 20 21 22 23 25 28 28 27 27 30 31 28 28 28 27 27 26 23 20 18 17 16 16 16 16 14 13 12 11 10 10 9 10 9 9 8 7 6 7 7 7 8 8 8 7 6
12 12 10 9 9 7 8 10 11 12 12 12 16 16 15 16 17 17 18 19 20 21 23 23 22 24 29 28 26 27 28 27 27 27 25 23 20 17 16 15 15 15 13 12 12 11 10 9 9 9 9 8 7 7 6 6 7 7 8 8 8 7 7
10 11 10 8 8 8 9 9 9 10 12 12 13 13 13 15 16 16 17 18 20 22 23 23 22 23 25 25 24 26 27 26 25 26 26 24 21 18 16 16 15 14 13 12 12 11 10 9 9 9 9 8 8 8 7 7 7 7 8 9 9 9 8
10 11 10 10 8 7 8 8 7 8 10 10 9 9 11 13 13 14 15 16 17 19 20 21 20 21 24 24 24 25 24 23 23 24 25 23 20 19 17 16 16 15 13 12 12 11 10 10 9 9 8 9 9 8 8 8 7 8 9 10 11 10 9
9 10 10 11 9 7 8 9 8 7 8 10 11 12 14 16 16 17 17 17 16 15 15 15 15 17 20 21 21 21 20 19 19 21 22 21 19 18 16 15 15 16 15 12 10 11 11 10 10 10 9 9 9 9 9 9 9 9 10 10 11 11 10
8 8 9 9 8 8 11 13 12 10 10 11 13 15 18 23 24 20 16 14 14 14 14 14 15 16 18 19 18 17 16 17 17 17 18 18 18 17 16 14 14 15 15 12 10 10 11 11 11 10 10 10 10 9 9 9 9 10 11 11 11 11 11
7 7 8 8 8 8 9 10 11 10 10 12 13 14 19 23 21 16 13 13 14 15 15 17 17 17 17 18 18 17 16 15 15 15 17 18 17 17 16 14 13 14 15 13 12 11 11 11 11 11 11 10 10 10 10 10 10 10 11 11 11 11 11
6 6 7 7 7 7 7 6 7 8 10 11 12 13 15 15 13 14 17 20 21 20 20 20 20 18 16 16 16 17 18 17 16 16 17 17 17 16 15 15 14 14 14 14 13 12 11 11 11 11 11 10 10 10 10 11 11 12 12 12 12 13 13
6 5 5 6 5 4 4 4 5 7 9 10 10 10 11 11 11 12 14 17 20 20 20 19 18 16 16 16 16 16 17 17 18 19 18 17 17 16 15 15 14 13 13 13 13 13 12 11 11 12 12 12 11 11 11 12 12 13 13 13 14 14 14
8 7 6 6 5 5 5 5 7 8 9 10 11 11 10 10 10 10 10 11 13 14 15 16 16 17 18 19 18 19 18 17 17 18 19 19 20 18 16 14 13 13 13 13 14 13 13 12 12 12 12 12 13 13 13 13 13 14 14 15 15 15 15
9 9 9 8 7 7 7 7 7 7 7 8 10 11 11 11 10 9 9 9 10 10 12 13 14 17 19 19 20 21 21 21 20 19 20 21 21 20 18 16 14 14 15 15 14 13 13 13 12 12 12 12 13 14 13 13 13 14 14 14 15 15 15
9 9 10 10 10 9 10 10 11 12 11 11 11 11 12 11 10 9 10 11 11 12 13 13 14 16 18 19 19 21 22 22 21 20 20 20 20 20 19 17 16 16 16 16 16 15 16 15 14 13 12 12 13 13 12 12 13 14 14 13 14 15 16
10 10 10 11 12 12 12 13 14 14 15 14 14 15 15 14 12 10 8 7 8 9 11 13 14 15 16 15 15 17 21 22 21 21 20 17 16 16 16 15 15 16 16 17 17 17 18 17 17 16 13 12 12 12 12 12 13 15 14 13 14 15 16
11 12 12 13 13 13 13 12 13 14 15 15 17 17 16 15 14 12 10 8 6 7 8 10 12 13 13 13 14 14 17 19 20 20 18 14 14 16 17 16 15 16 17 17 17 17 17 17 18 17 15 14 13 12 12 12 14 15 15 14 14 14 16
12 13 13 14 13 12 12 12 14 14 15 17 20 21 20 20 19 18 17 17 16 14 13 11 9 6 5 8 12 14 15 16 17 18 18 16 16 20 21 19 18 18 18 18 17 17 17 17 17 17 16 14 14 14 12 12 14 15 15 15 14 13 15
13 12 13 13 12 11 11 13 15 16 16 17 20 24 26 26 25 25 25 25 24 22 21 20 18 15 12 9 6 7 11 13 14 16 18 17 15 17 18 19 19 19 19 18 16 15 17 18 17 17 17 16 16 16 14 14 16 16 15 15 15 14 15
12 12 11 11 11 12 12 13 14 15 15 17 21 26 27 27 27 27 26 27 27 27 26 25 24 22 20 18 15 11 7 6 6 8 12 15 15 14 13 15 16 16 15 15 13 11 13 14 13 14 16 16 16 16 15 15 16 17 16 17 17 16 15
11 13 11 11 12 14 13 14 14 14 15 19 25 28 28 27 27 26 25 26 28 27 27 27 26 25 24 22 20 17 14 10 8 7 8 12 16 15 12 10 11 11 11 11 9 8 8 8 8 9 10 11 12 13 12 12 15 17 16 17 17 16 16
11 13 13 14 15 15 15 16 17 15 17 21 24 27 28 28 28 28 27 27 27 26 26 26 24 23 22 21 20 17 15 13 11 10 10 12 15 16 13 11 10 10 10 9 8 7 6 6 7 7 7 7 8 10 10 9 12 14 15 16 16 16 15
13 14 15 16 17 16 15 17 19 18 18 19 20 23 26 26 27 28 26 22 22 22 23 24 22 20 19 19 18 16 15 13 11 9 9 9 11 12 13 13 12 11 10 10 9 8 6 6 6 5 4 4 5 7 8 8 10 11 12 13 15 15 15
12 13 13 14 16 17 17 19 22 22 21 20 19 21 23 24 25 25 21 17 17 18 18 19 19 19 18 18 16 15 15 14 12 10 9 8 8 7 8 9 10 11 10 8 8 7 6 6 6 5 4 4 3 2 4 6 8 8 9 11 12 13 14
11 12 13 13 16 19 20 21 21 20 19 19 18 18 20 21 22 21 18 16 16 16 15 15 17 18 18 18 17 16 16 15 14 14 12 11 10 8 6 7 8 9 9 9 7 6 5 5 6 5 4 4 4 3 2 0 2 4 5 7 10 11 11
12 12 13 14 15 17 18 18 18 18 18 18 18 16 16 18 19 17 15 15 16 14 13 14 16 17 17 17 17 17 17 16 15 15 14 13 13 12 9 7 7 7 8 9 9 9 9 10 9 9 8 7 5 4 4 3 3 5 7 8 8 9 10
10 12 13 13 14 15 15 15 15 16 16 15 14 13 13 15 16 15 14 15 14 13 12 14 15 15 16 16 17 17 17 16 15 15 15 14 15 15 13 11 10 9 10 11 12 13 14 14 13 12 11 9 7 5 4 4 5 4 5 6 6 5 5
8 9 10 11 12 13 15 15 14 14 13 12 12 11 12 13 14 13 13 14 13 11 12 13 14 14 15 15 16 16 16 15 14 14 14 14 14 16 16 15 15 14 14 15 15 15 14 14 14 14 12 10 9 8 7 6 7 5 5 4 4 3 3
9 8 8 10 11 12 14 15 15 14 13 13 13 13 12 12 13 13 13 13 12 11 12 12 13 14 14 13 14 15 14 14 14 13 13 12 12 13 14 15 15 16 16 16 16 15 15 14 14 15 13 11 10 9 8 6 5 5 6 5 3 3 4
10 10 9 10 13 13 12 14 15 14 14 13 13 13 12 11 12 13 12 12 11 10 10 11 12 12 12 12 12 11 11 13 13 13 13 12 11 12 13 13 13 14 14 14 14 14 14 14 14 14 14 12 10 8 6 6 5 5 7 6 5 5 6
9 11 10 10 13 14 13 14 14 14 13 12 11 11 11 10 10 11 10 9 9 9 8 9 10 11 11 11 10 10 9 10 11 11 12 12 12 12 12 12 12 12 12 13 13 13 13 12 12 12 11 11 9 8 6 6 6 7 7 7 7 7 8
9 10 11 13 16 17 16 15 13 12 12 11 9 9 9 9 9 9 8 7 7 7 8 9 9 10 10 9 9 9 9 9 9 9 10 11 11 11 11 11 11 11 11 11 10 10 10 10 10 9 8 7 7 6 6 7 7 8 8 8 8 9 9
11 10 11 15 18 18 17 17 16 14 12 11 9 8 8 8 8 8 8 8 7 8 9 10 9 9 10 9 9 9 9 9 9 8 8 9 9 10 10 10 9 9 9 9 8 8 7 7 7 7 6 6 5 4 5 6 7 8 8 9 10 10 11
10 12 13 16 17 16 16 17 16 15 14 13 11 9 9 10 9 9 9 9 8 8 9 9 9 9 8 8 8 9 8 8 9 8 8 8 8 8 9 9 9 8 7 7 7 6 5 5 5 5 5 5 4 3 3 4 5 6 7 8 9 10 10
7 9 13 15 15 15 15 16 16 16 16 15 12 11 11 11 10 9 9 9 8 8 8 8 7 7 7 7 7 7 7 7 7 7 8 7 7 7 7 8 8 8 7 6 6 5 4 4 4 4 4 4 3 2 2 2 3 4 5 6 8 9 9
15 14 14 14 13 13 14 15 15 15 15 15 13 13 13 12 11 10 9 9 9 8 8 8 7 6 6 6 6 6 6 5 5 6 6 6 6 6 6 7 7 7 6 6 6 5 4 4 4 5 5 4 3 3 3 2 3 4 5 6 7 7 8
21 20 18 15 14 15 15 14 13 14 14 14 12 12 12 11 10 9 9 8 8 9 9 8 7 6 5 5 5 5 5 5 5 5 5 6 6 6 6 6 6 6 6 7 7 6 4 4 4 5 5 5 4 4 4 3 3 4 5 6 6 6 7

ECMWFFLT1_925_spd_108.txt.gz
Wind_Speed
17 18 17 14 13 15 15 18 19 18 18 18 18 19 18 17 17 17 17 18 19 18 18 18 17 17 16 16 15 15 14 13 12 11 11 10 9 8 8 8 7 7 6 6 6 7 7 7 7 7 7 6 6 5 5 4 4 3 3 4 4 3 4
15 17 18 15 14 15 17 20 20 19 19 19 19 18 17 17 18 18 17 18 19 19 19 19 18 18 17 16 15 15 15 14 13 12 11 10 9 9 9 8 8 7 7 6 6 6 7 7 7 7 7 7 6 6 5 5 4 4 4 4 5 4 4
13 15 17 15 14 14 17 19 19 19 19 19 18 17 17 17 18 19 18 19 19 19 18 18 19 18 17 16 16 15 15 15 14 13 13 12 11 11 10 9 9 9 8 8 7 7 7 8 7 8 8 7 7 6 6 5 5 6 5 5 5 5 5
14 15 15 14 14 14 16 18 19 19 18 17 17 17 17 18 18 18 19 19 20 20 19 19 19 19 18 17 16 16 16 16 15 14 14 13 12 12 12 11 10 10 9 9 9 8 7 8 8 8 9 9 8 7 7 6 6 6 6 6 6 5 5
15 15 13 12 12 11 12 15 16 15 15 15 15 16 16 17 17 17 17 18 19 19 20 19 18 18 18 17 16 16 16 16 16 15 14 13 12 12 13 12 11 11 10 10 10 9 9 8 9 9 10 10 10 9 8 7 7 7 7 7 6 6 6
14 14 12 12 11 10 11 13 14 12 11 12 13 13 14 15 16 16 16 16 17 17 18 18 18 18 18 17 17 16 15 16 16 16 15 14 13 13 13 12 12 11 11 10 10 11 11 10 10 10 10 11 10 10 9 8 8 7 7 7 7 6 6
12 13 13 12 12 11 11 12 13 11 10 10 11 12 13 13 14 14 14 14 15 15 16 17 17 17 17 17 17 16 15 16 16 16 16 16 15 14 13 13 12 12 11 11 11 11 11 11 11 11 11 10 10 10 9 9 8 8 8 7 7 7 6
10 11 11 12 13 11 11 12 11 11 10 9 10 12 12 13 14 14 14 14 14 15 15 16 16 16 15 15 16 16 16 16 15 15 15 16 16 16 15 14 13 12 12 11 12 12 12 12 12 11 11 10 10 10 10 9 9 9 8 8 7 7 7
8 9 10 11 12 11 12 13 12 12 11 10 10 11 12 12 12 14 14 14 14 15 15 15 15 15 14 14 15 16 16 15 15 15 15 16 16 17 16 15 14 13 13 12 12 12 12 12 12 11 11 10 9 9 10 10 10 9 9 8 8 7 7
7 9 10 11 11 11 14 15 14 14 14 11 8 8 10 10 9 10 12 14 14 15 15 15 15 15 14 14 14 15 15 15 14 14 15 15 16 16 16 16 15 14 14 14 13 12 12 12 11 11 11 10 10 10 10 10 10 10 10 9 9 8 8
6 8 10 11 11 12 14 14 12 11 14 14 9 6 8 10 10 10 10 11 12 13 14 15 15 15 15 14 14 14 14 15 14 14 14 14 14 15 16 16 15 14 14 14 14 13 12 12 11 11 11 11 10 10 10 10 10 10 10 10 9 9 8
4 6 8 10 11 12 13 13 11 9 11 14 12 10 10 10 11 12 12 10 9 10 12 13 14 14 14 14 14 14 14 14 14 13 14 14 14 14 14 15 15 14 14 14 14 14 13 12 12 12 11 11 10 10 10 10 10 10 10 10 9 9 9
4 4 5 7 7 8 11 11 11 10 10 11 12 12 13 14 15 16 16 13 11 12 12 13 15 15 13 13 14 14 14 14 14 13 13 13 13 13 13 14 15 14 14 14 14 15 14 13 13 12 12 11 11 10 10 10 10 10 10 10 9 9 9
6 6 6 7 6 6 8 9 9 11 11 10 11 11 12 14 16 17 17 16 16 18 18 16 17 18 16 15 14 13 13 13 13 13 13 12 11 12 13 13 14 14 13 13 14 15 15 14 13 13 12 12 12 11 11 11 11 11 11 11 11 10 10
8 8 8 8 8 6 6 6 7 10 12 12 13 13 13 14 14 14 16 17 19 21 21 19 19 20 20 20 19 18 16 14 13 12 11 11 12 12 12 13 13 14 14 14 14 14 14 14 14 14 13 13 12 12 12 12 12 12 12 12 11 11 11
8 9 9 9 9 8 8 7 7 7 8 10 12 14 15 14 15 15 14 15 17 18 19 19 19 20 21 22 23 23 22 20 19 17 15 13 13 12 13 13 14 14 15 14 14 13 13 14 14 15 14 13 13 13 14 14 13 13 14 14 12 10 10
9 10 10 9 9 9 9 10 10 10 9 7 7 8 9 9 11 14 15 15 15 15 16 18 18 19 20 21 21 22 23 23 23 22 21 20 18 16 15 14 14 14 14 14 14 14 14 14 15 15 15 14 14 14 14 14 14 15 16 16 14 12 11
10 11 10 10 9 9 9 9 10 11 11 11 11 9 7 7 5 6 8 11 13 15 15 17 17 18 19 19 18 17 19 21 20 19 19 20 21 21 19 16 15 15 14 14 14 14 14 14 14 15 15 15 14 14 14 14 13 15 16 15 15 14 12
11 11 11 10 10 10 10 10 11 12 12 12 13 12 10 10 10 8 7 5 5 8 10 10 11 12 13 14 15 15 16 17 16 16 18 18 19 21 21 19 17 16 16 15 14 15 15 15 14 13 13 13 13 13 13 13 13 14 15 15 15 14 13
11 11 11 11 10 10 11 11 12 13 14 15 16 15 15 15 14 12 10 10 9 8 7 7 6 4 4 5 8 10 12 13 13 13 15 17 17 18 19 18 17 17 16 15 15 15 15 15 15 14 13 13 13 13 14 13 13 14 14 14 14 13 13
12 12 12 11 10 12 13 13 12 11 13 15 16 16 16 17 17 16 15 14 14 12 11 10 10 8 7 6 4 2 4 6 9 10 11 14 16 17 17 17 17 17 16 14 14 16 16 15 15 14 14 14 13 14 14 14 14 14 14 14 13 13 13
12 12 13 12 11 12 13 12 12 11 11 13 14 14 14 14 15 16 17 18 19 18 17 16 14 11 9 8 7 6 5 4 3 3 4 8 12 15 17 18 19 19 18 16 15 15 14 14 14 13 14 13 13 14 14 12 12 13 14 14 14 14 13
14 13 14 15 14 14 12 12 13 12 12 13 13 13 12 12 12 14 15 17 19 18 17 17 16 13 12 10 9 8 7 6 5 4 2 2 4 5 8 13 16 17 19 19 18 16 14 13 12 11 11 12 12 13 11 8 9 12 13 15 16 14 12
16 15 15 14 14 14 13 12 13 13 12 13 14 13 12 11 11 13 13 13 14 14 14 14 13 13 13 12 10 9 8 7 7 6 6 5 6 7 5 3 5 10 14 15 14 13 13 13 11 10 10 10 10 10 9 8 10 10 10 12 14 13 12
15 16 16 14 14 14 13 12 12 12 12 12 13 12 11 11 12 12 11 11 11 12 12 12 11 11 12 12 11 10 10 9 8 7 7 6 7 9 10 9 8 6 8 8 7 6 8 9 9 9 9 8 8 9 8 6 6 6 7 9 11 12 11
14 15 16 15 15 14 13 12 12 12 12 11 11 10 10 11 12 11 11 10 10 11 12 11 10 10 10 11 11 11 11 11 10 9 8 7 6 7 8 9 9 9 7 5 4 4 5 7 8 7 7 6 5 5 4 3 3 2 2 5 8 9 9
13 14 15 15 15 14 13 11 11 11 11 9 9 9 9 11 12 11 10 10 10 11 10 9 9 10 11 11 11 11 12 12 11 10 9 8 7 6 6 6 6 6 6 6 5 4 3 3 5 5 4 5 5 4 3 3 2 3 3 2 4 5 5
12 13 13 12 12 12 11 11 11 11 10 9 8 9 9 10 11 10 9 10 10 9 8 8 9 10 10 11 11 12 12 12 11 10 10 10 9 8 7 6 5 6 6 6 6 7 7 6 5 3 2 2 2 1 1 2 2 1 1 1 2 2 1
10 10 10 9 9 10 10 10 10 10 9 9 9 9 9 10 11 10 9 9 9 7 7 7 8 9 9 10 11 10 10 11 11 10 10 10 10 10 9 8 7 7 8 8 8 9 9 8 7 7 5 3 3 4 4 4 4 4 3 2 2 2 1
11 9 9 8 7 7 7 9 10 10 10 9 9 9 9 9 10 9 9 8 7 7 7 7 7 7 8 8 8 8 9 9 10 9 9 10 10 10 10 10 9 9 8 8 8 8 8 7 6 6 6 6 6 7 6 5 5 5 5 4 4 5 4
13 12 11 8 7 5 6 8 10 10 10 10 10 9 8 8 9 9 8 7 6 6 7 7 6 7 7 7 7 7 7 7 8 8 8 8 9 9 9 9 9 9 8 8 8 8 7 6 5 4 5 6 7 7 6 6 5 5 6 5 5 6 7
12 12 12 11 8 6 6 8 10 11 11 10 9 8 8 7 7 8 7 6 6 6 6 6 6 6 6 6 6 6 6 6 6 7 7 7 7 8 8 8 8 8 8 7 7 7 7 6 4 3 4 5 5 5 4 4 3 4 4 5 6 7 7
11 12 12 12 10 8 6 8 10 11 10 8 7 7 7 6 6 6 6 5 6 6 6 6 6 6 5 5 5 6 6 6 6 6 6 6 6 6 6 6 6 6 6 6 6 5 5 4 3 3 3 3 2 2 2 2 2 3 5 6 7 7 7
7 8 9 10 9 7 7 9 10 9 7 6 6 6 6 6 6 6 6 6 6 6 6 5 5 5 5 5 5 5 5 6 5 5 5 6 6 6 7 6 5 5 6 6 5 4 3 2 2 3 3 2 2 1 1 1 2 4 6 7 8 8 9
4 4 6 7 6 5 7 9 9 8 7 6 5 5 5 5 6 6 6 6 5 5 5 5 4 4 4 4 5 5 4 4 5 5 5 5 5 6 7 7 6 5 5 6 5 3 2 2 2 3 3 3 3 3 2 3 3 5 6 7 8 9 10
6 5 4 4 4 6 7 7 7 7 6 6 5 4 5 5 5 6 6 6 5 5 5 4 3 3 4 4 5 5 5 4 5 5 5 5 4 4 5 6 6 5 4 4 4 3 2 0 1 2 2 2 2 3 3 2 3 4 5 6 7 8 9
13 10 7 5 5 6 6 6 7 7 6 5 5 5 5 5 5 6 6 6 6 5 5 4 4 4 4 5 6 6 6 5 5 5 5 5 5 4 2 3 4 4 4 4 4 3 2 1 0 1 1 1 1 1 2 2 3 4 5 5 6 7 8
19 20 18 13 8 8 9 8 8 8 7 6 6 6 5 5 5 6 6 6 6 5 5 5 4 4 4 5 5 5 6 5 5 5 4 4 4 4 3 1 1 3 3 4 5 4 3 2 2 1 1 2 2 1 2 3 4 4 4 5 6 7 7

ECMWFFLT1_925_spd_111.txt.gz
Wind_Speed
16 12 7 6 11 15 15 17 20 20 20 21 20 20 19 18 17 16 17 18 19 18 18 16 15 15 14 14 13 13 13 12 12 11 10 9 8 8 9 8 8 8 8 8 9 9 8 7 8 8 8 7 7 7 6 5 5 5 4 4 3 2 2
16 15 11 6 7 13 16 19 20 20 20 20 20 20 19 18 18 17 17 18 19 19 18 17 15 15 14 14 14 13 13 13 12 12 11 10 9 8 9 8 8 8 7 7 8 8 8 8 8 8 8 8 8 8 7 7 7 6 5 5 4 3 3
14 16 15 9 6 8 12 17 19 20 21 21 20 20 19 18 18 18 17 18 19 19 18 18 17 16 15 14 14 14 14 14 13 13 12 12 11 11 10 8 8 9 9 7 7 8 9 10 10 10 10 9 9 9 8 8 8 7 6 6 5 5 4
14 16 16 13 9 7 9 14 17 19 20 21 20 20 20 18 18 18 18 18 19 19 19 19 18 17 16 15 14 15 15 15 14 13 13 12 12 12 11 10 9 9 9 9 9 9 9 11 11 11 11 10 10 10 10 9 9 9 8 8 7 7 7
15 15 15 14 12 10 10 14 18 20 20 21 21 20 19 18 18 18 19 19 19 19 19 19 19 18 17 16 15 15 15 15 14 13 13 12 11 12 12 12 12 11 10 9 10 9 8 8 10 11 11 11 11 11 10 10 9 9 9 9 8 8 8
12 12 14 15 14 12 12 15 21 22 20 21 20 19 18 17 17 17 18 18 18 19 18 18 18 18 17 17 16 15 15 15 15 14 14 13 12 12 12 13 13 13 13 12 11 10 9 9 10 11 11 12 12 11 11 10 10 10 10 9 10 9 8
11 10 12 13 13 12 10 13 19 21 20 20 19 17 17 16 16 16 16 16 17 17 17 17 17 17 17 16 15 16 15 15 16 15 15 15 14 14 13 13 13 13 13 14 12 12 11 11 11 11 11 12 12 11 11 11 10 10 10 10 10 10 9
13 11 12 12 11 12 12 13 16 17 17 17 17 17 16 16 16 16 16 16 16 17 17 17 16 15 15 15 15 16 16 15 16 16 16 16 16 15 14 14 14 13 14 15 15 14 13 13 13 12 12 12 11 11 11 11 11 11 11 11 11 11 10
14 13 12 12 12 11 12 15 17 16 16 15 15 15 14 14 14 13 13 13 14 16 17 17 16 14 14 14 14 15 15 15 15 16 16 17 17 17 16 16 15 15 15 16 16 15 15 15 14 13 13 12 12 12 11 11 11 12 11 11 11 11 11
12 12 10 10 11 11 12 15 16 16 17 15 13 14 13 12 12 11 11 11 12 14 15 15 15 15 14 13 13 14 15 15 15 15 16 17 17 17 18 17 17 16 16 17 16 16 17 16 14 13 13 13 13 13 12 12 12 13 12 12 11 11 11
10 11 10 10 11 12 12 13 12 12 13 12 11 13 14 13 11 10 11 11 11 12 13 13 13 14 15 15 14 14 14 14 15 15 16 17 17 17 18 18 17 16 16 16 15 15 17 17 16 15 15 15 14 14 13 13 13 13 13 13 12 12 12
8 10 10 9 8 8 10 11 12 13 12 9 9 13 16 15 12 10 10 11 11 11 11 12 13 13 14 15 15 15 15 15 15 15 16 16 17 17 17 18 18 17 18 19 18 16 17 17 17 15 15 15 15 15 14 14 13 13 13 13 12 12 12
6 8 10 9 8 7 9 11 13 15 15 12 10 12 15 16 14 12 11 10 9 10 11 11 12 13 13 14 15 16 16 17 16 15 16 16 16 16 16 17 18 18 20 21 20 17 17 17 17 16 15 16 16 16 15 15 14 14 13 13 13 12 12
5 7 9 10 10 9 8 10 12 15 17 16 13 11 12 14 14 14 13 10 8 9 10 9 10 12 12 13 14 15 17 18 17 17 16 15 15 16 16 16 17 17 18 18 17 17 18 17 18 18 17 16 17 16 16 16 15 15 14 14 13 13 12
5 6 7 7 9 9 8 8 10 13 16 17 15 13 11 12 13 15 15 15 12 11 10 9 10 11 11 12 13 13 14 14 15 16 16 15 14 14 15 15 15 16 17 17 17 17 18 18 18 17 17 17 17 17 16 16 16 16 15 14 14 13 12
6 7 8 8 8 8 7 8 9 11 13 14 15 15 12 11 12 15 17 17 17 17 15 14 14 13 12 13 13 12 12 11 10 10 12 13 13 13 14 14 15 15 16 17 17 17 17 17 18 17 16 16 17 17 17 16 16 15 15 15 14 13 12
8 9 10 10 9 8 7 6 7 8 9 9 12 14 13 13 13 14 16 16 17 19 20 20 19 17 16 16 14 14 15 15 13 12 10 10 11 11 11 12 14 15 15 16 17 17 16 17 17 17 17 16 16 18 19 17 14 15 16 17 16 14 12
8 8 9 10 9 9 8 8 8 8 8 7 8 9 10 12 13 13 14 14 15 17 19 21 21 20 19 18 17 16 19 21 21 21 20 18 16 13 11 10 11 12 13 15 16 16 16 17 17 17 17 17 17 18 18 16 15 17 19 20 20 18 15
7 7 8 8 8 9 8 9 9 9 8 8 7 7 5 5 6 7 7 9 12 15 16 17 19 19 19 19 18 18 19 19 20 22 22 22 22 21 18 15 14 14 13 13 14 15 14 15 17 18 18 18 17 17 16 15 16 18 19 19 20 19 18
7 8 8 9 9 9 9 10 11 10 9 9 9 8 7 6 7 7 6 4 4 7 10 11 13 14 13 13 13 15 16 17 18 20 21 21 20 21 20 19 17 16 13 12 14 15 14 15 18 18 18 18 17 16 16 14 12 14 16 17 16 16 16
7 9 9 9 9 9 11 13 13 12 12 11 10 9 9 8 8 8 7 7 6 6 5 6 6 5 4 4 4 5 9 13 14 17 18 19 20 20 21 21 18 15 15 15 16 17 17 17 19 18 17 17 17 16 15 12 9 10 13 15 14 14 15
8 9 9 10 10 11 13 14 13 13 13 12 12 12 11 10 10 9 9 8 7 7 7 7 7 7 6 4 3 1 3 7 9 9 9 11 14 17 18 20 19 18 18 17 18 19 19 18 19 18 16 14 16 16 13 9 8 10 12 12 12 13 14
11 11 11 12 12 13 13 13 13 13 13 13 13 13 12 12 12 12 12 11 10 11 10 10 10 9 9 7 5 4 3 3 3 4 3 4 8 12 13 14 14 16 17 17 18 22 21 17 17 17 15 15 16 12 7 7 7 9 10 10 10 11 12
12 14 14 13 13 13 14 13 13 12 13 14 14 13 12 12 12 13 13 12 12 12 12 12 12 11 10 9 7 5 5 5 5 6 6 4 3 5 7 7 9 12 14 15 18 21 21 17 15 13 13 13 12 8 2 4 3 5 5 7 8 9 10
12 14 14 14 14 14 13 12 12 12 13 14 13 13 12 11 11 11 11 11 11 11 12 12 12 12 10 9 8 7 7 7 7 7 7 7 6 5 2 2 4 8 10 11 14 17 17 18 17 13 10 8 5 3 2 3 2 3 3 4 6 9 11
13 14 13 14 15 14 13 13 13 13 14 13 12 12 12 11 11 11 10 10 11 11 12 11 11 11 11 9 9 8 8 8 9 8 7 6 5 5 4 4 2 3 4 4 7 10 10 10 10 10 7 7 8 4 6 5 4 3 3 4 5 7 8
15 15 15 16 15 14 13 14 13 13 14 14 12 11 10 10 11 12 11 11 12 12 11 9 10 10 10 10 9 9 8 9 9 8 8 7 6 4 3 2 2 4 5 4 4 6 6 5 7 9 11 12 11 7 4 5 4 3 3 3 3 4 4
16 14 14 14 14 13 13 13 13 12 13 12 12 11 10 11 11 12 11 12 12 11 10 9 9 10 10 9 9 9 9 9 8 8 8 8 7 6 4 3 3 4 4 4 5 6 5 5 4 4 7 7 6 6 4 3 2 1 2 1 1 2 2
14 13 13 13 13 13 12 12 12 12 12 11 11 11 10 11 11 10 10 11 11 10 9 9 9 9 9 9 8 8 8 8 8 8 8 8 8 7 7 7 7 7 6 6 8 9 9 8 7 6 7 8 8 8 7 5 3 4 4 4 4 4 4
14 13 13 15 17 18 16 13 11 11 10 10 11 11 11 10 10 9 9 10 9 9 9 8 7 7 7 7 6 6 6 6 7 7 7 8 8 8 7 8 8 9 9 8 8 9 8 9 8 8 8 9 9 9 9 9 8 9 9 9 8 7 6
13 13 13 14 16 16 16 14 13 11 11 11 11 10 10 9 9 8 9 8 8 8 8 7 6 7 6 6 5 5 4 4 5 6 6 6 6 7 7 7 7 7 7 7 7 8 7 7 8 8 8 8 9 8 8 7 8 9 10 10 9 9 8
14 14 13 12 12 12 10 9 10 11 12 12 11 10 8 8 8 7 7 7 8 8 7 6 5 6 5 5 5 4 4 3 4 5 6 5 5 5 5 5 6 6 5 5 6 6 6 6 6 6 6 6 6 7 6 5 5 6 7 7 7 7 9
13 14 13 12 10 8 7 7 6 7 8 9 10 10 8 7 7 6 7 8 8 8 7 5 5 5 5 5 5 5 5 6 6 5 5 5 5 5 5 4 4 3 3 4 4 3 3 4 4 4 4 4 4 4 3 4 5 5 4 6 6 7 8
12 11 11 10 9 6 5 6 6 6 7 8 8 9 9 8 7 6 7 8 8 6 5 5 5 5 5 5 6 6 5 5 5 5 5 5 5 7 7 6 5 5 5 6 7 5 4 3 3 3 2 1 2 1 1 4 7 6 4 5 7 8 9
10 10 9 8 7 6 5 5 5 6 7 7 7 6 6 7 7 7 7 7 6 4 4 4 3 3 4 5 5 5 5 4 5 5 5 4 6 7 8 8 7 7 7 7 6 6 5 5 5 5 3 4 4 3 3 6 8 7 6 7 7 8 8
10 10 10 9 7 6 5 5 5 6 6 6 6 5 2 3 5 7 7 6 5 5 4 3 2 2 4 5 6 6 6 5 6 6 6 5 5 6 6 7 7 6 7 7 7 5 4 3 4 4 2 4 5 3 4 5 7 7 6 6 8 8 8
11 13 13 11 9 8 7 6 5 6 7 6 5 5 3 2 3 5 6 7 7 6 5 3 2 4 6 7 7 7 8 7 6 6 6 6 6 4 3 4 5 6 8 9 9 8 6 5 4 3 1 2 4 3 3 4 4 6 6 6 7 8 8
14 14 14 12 9 8 8 9 7 6 6 6 5 4 3 2 3 4 5 6 7 7 6 5 5 5 6 7 7 7 7 6 6 5 5 5 5 5 3 1 3 5 6 7 7 8 7 6 6 6 4 2 1 1 3 5 5 6 6 6 7 8 8

ECMWFFLT1_925_spd_114.txt.gz
Wind_Speed
12 10 8 6 11 16 13 15 19 18 19 21 20 21 21 20 22 23 22 23 23 21 21 21 21 20 19 18 17 17 16 15 14 13 13 14 14 14 13 12 12 12 11 10 10 11 11 10 11 11 12 11 10 10 10 10 9 8 8 7 6 6 5
14 12 8 4 7 13 14 17 20 19 20 21 21 21 21 21 22 23 23 24 23 21 20 21 21 21 20 19 18 17 17 16 15 14 13 13 13 13 13 12 12 12 11 11 11 11 9 8 9 11 12 12 11 11 10 10 10 9 9 8 7 8 7
14 12 10 5 3 6 13 18 19 20 22 22 22 22 21 21 22 23 24 24 23 22 20 20 20 20 20 19 18 18 18 17 16 15 14 13 13 13 13 12 12 12 11 10 11 11 9 9 10 11 11 11 11 12 11 10 11 10 10 10 9 9 9
12 12 11 7 2 3 8 17 18 19 23 24 23 22 22 22 22 22 24 23 23 23 22 21 20 19 19 19 18 18 18 18 17 15 14 14 13 13 12 12 11 11 11 10 10 10 10 10 11 11 11 11 11 12 11 10 11 11 10 10 9 9 10
12 12 10 7 5 3 3 12 18 19 21 23 24 23 21 22 21 21 22 22 22 22 22 21 20 19 19 19 18 17 18 18 17 16 14 14 14 13 12 12 11 11 12 11 10 11 11 11 11 12 12 11 11 12 12 11 11 11 11 11 10 10 10
10 10 10 8 7 4 2 5 14 20 21 21 23 22 21 22 22 22 21 21 22 22 22 21 20 19 19 18 17 17 18 17 17 17 15 14 14 14 14 14 13 11 12 11 10 12 11 10 12 12 12 12 12 12 12 12 11 11 12 12 11 10 10
9 8 10 10 8 7 5 3 7 13 17 21 22 20 21 21 19 19 21 21 22 23 23 22 20 20 19 18 17 17 17 17 17 16 16 14 14 15 15 16 15 14 12 11 11 12 11 10 12 12 12 12 12 12 12 13 12 12 13 13 12 12 11
11 10 11 13 11 9 7 6 5 7 10 18 22 19 19 18 15 16 18 19 21 22 23 22 20 21 21 18 17 18 17 17 17 16 16 15 15 15 15 16 16 16 14 12 12 13 12 11 11 12 12 13 12 12 13 14 13 12 13 13 13 12 11
8 10 11 13 12 10 9 10 11 11 10 15 21 20 18 16 17 18 15 14 18 19 20 20 18 20 21 19 17 17 17 17 17 17 16 16 15 15 15 15 14 14 14 13 12 13 12 12 11 12 13 13 12 13 13 14 14 14 13 14 13 12 12
7 8 9 9 8 8 9 10 11 12 14 15 15 15 18 18 19 21 16 13 16 16 16 18 17 17 19 19 17 17 17 17 17 17 17 16 16 16 15 15 14 14 14 13 12 12 13 12 12 14 15 13 12 14 14 13 15 15 13 13 14 14 13
8 8 8 7 4 4 5 5 4 3 6 10 14 16 19 19 20 21 18 17 17 16 15 16 16 17 17 17 17 16 16 16 16 16 17 17 16 16 16 15 15 15 15 14 13 13 13 13 13 15 17 15 13 14 15 15 15 15 14 13 14 14 13
7 8 9 9 7 6 6 4 7 8 6 9 15 17 16 16 17 18 17 16 18 17 16 15 15 16 17 16 16 15 15 15 15 16 16 16 15 16 16 16 15 15 16 16 15 14 14 14 14 15 17 18 15 14 16 17 16 16 15 14 14 14 13
6 7 8 10 8 7 7 7 9 10 8 10 14 15 14 15 16 18 16 15 15 16 16 17 17 17 18 18 18 17 15 14 14 14 15 15 15 15 15 15 16 16 16 17 16 15 15 15 16 15 16 17 16 15 16 17 16 16 16 15 15 15 14
5 7 7 8 9 8 8 8 8 7 9 11 12 12 14 15 15 17 17 15 16 18 19 19 17 16 17 18 19 18 16 16 15 14 14 14 14 14 14 14 15 16 16 17 17 17 16 16 17 16 15 16 17 16 16 17 16 16 17 16 16 15 14
3 7 8 8 10 9 7 8 8 6 6 9 9 10 9 9 11 13 14 14 15 16 16 15 14 13 13 14 15 16 16 16 14 14 14 14 13 12 12 13 13 13 15 16 19 18 17 17 17 17 18 18 18 17 16 15 16 18 17 16 16 15 13
1 3 6 7 7 8 7 6 6 7 7 7 8 7 5 3 2 5 8 10 10 9 8 9 10 10 11 11 11 12 13 11 10 11 12 12 11 10 10 10 9 9 10 12 14 16 17 18 18 18 18 17 16 16 16 14 14 17 18 17 16 15 13
2 2 6 6 4 6 7 5 2 3 5 7 10 11 9 9 9 8 8 9 9 8 6 6 6 6 8 10 9 9 9 7 6 8 8 8 7 7 9 10 9 10 10 8 8 8 10 14 16 15 16 17 16 16 15 14 14 16 18 18 17 16 13
6 5 10 9 4 3 5 4 4 5 5 4 7 10 12 15 16 13 12 12 12 12 12 12 11 10 9 9 9 8 7 6 4 5 8 9 6 2 4 6 7 8 9 8 9 9 7 8 10 12 13 15 15 14 13 14 14 15 16 18 19 18 16
6 7 10 11 9 7 6 7 8 8 7 5 4 5 4 7 10 9 10 10 11 12 12 12 13 14 12 10 10 9 9 9 8 6 7 11 11 8 7 8 9 8 7 7 9 11 10 8 7 8 10 9 10 12 12 12 13 14 16 18 20 20 18
7 10 11 11 11 9 9 11 11 10 9 8 9 10 8 7 7 7 6 5 4 6 7 6 7 10 11 10 9 9 9 10 10 6 3 8 14 15 14 14 16 14 11 10 10 13 14 12 9 10 11 9 8 9 8 6 10 16 18 20 24 24 22
9 11 11 11 11 10 10 12 12 11 10 8 8 8 7 7 7 8 11 12 11 9 8 7 6 3 5 6 6 7 9 9 9 7 5 8 11 14 15 16 17 17 16 14 14 15 15 15 14 15 14 12 10 9 6 5 10 15 17 20 25 25 22
10 11 11 11 12 12 13 14 14 14 12 10 10 9 8 7 8 10 12 13 14 15 14 13 12 9 5 5 5 4 5 5 6 7 8 10 10 10 12 12 13 17 19 18 17 15 14 14 16 17 16 14 13 12 9 7 9 12 12 13 16 18 17
12 12 14 15 14 14 15 15 16 16 13 11 11 11 11 11 11 13 15 14 15 16 16 16 15 13 9 4 2 2 2 2 4 7 8 9 8 8 10 12 14 16 17 17 15 15 14 14 15 15 14 13 13 13 12 10 8 9 10 11 13 14 12
14 15 16 18 19 18 16 15 17 16 14 12 11 10 11 12 12 14 14 15 15 16 17 17 16 16 13 9 6 6 5 5 2 3 3 3 5 6 8 11 12 12 13 13 13 14 15 15 16 16 14 11 9 9 9 10 9 9 11 13 13 13 11
16 16 17 17 18 20 22 22 22 20 17 15 13 11 11 10 11 13 14 14 15 15 16 15 15 15 14 11 10 9 8 6 6 5 5 4 2 2 2 3 3 6 9 10 11 13 13 14 15 16 15 13 10 8 8 10 12 10 10 11 12 11 10
16 17 17 16 16 18 20 22 24 23 21 19 17 16 16 14 14 15 15 14 14 15 15 15 14 14 13 12 12 12 10 9 7 7 6 5 4 4 3 3 2 2 4 5 6 6 8 9 11 14 16 17 15 12 11 12 13 10 8 8 10 10 8
16 17 17 16 16 17 18 20 21 21 22 21 19 18 18 17 17 17 16 15 15 15 14 13 13 13 12 12 11 11 11 10 9 8 7 6 5 4 3 3 3 3 2 2 3 3 4 3 2 1 4 11 16 16 12 10 10 8 5 3 4 6 6
16 17 17 17 17 17 18 19 20 21 21 20 18 17 16 16 16 16 15 15 15 14 12 11 12 11 11 11 11 10 9 8 8 9 9 8 7 6 6 5 4 3 3 3 4 5 6 7 8 10 10 11 14 15 12 8 6 6 3 2 2 3 4
15 15 16 17 18 18 18 19 20 20 19 18 18 17 16 16 16 15 14 14 14 13 11 10 10 10 10 10 11 11 10 8 8 10 11 10 9 10 11 11 11 9 7 6 7 7 7 7 9 11 13 13 13 14 13 11 9 9 8 7 6 6 4
13 14 15 17 18 19 19 18 18 18 18 17 17 16 16 16 16 15 14 14 14 13 12 10 9 8 8 7 8 9 9 7 8 9 10 10 9 9 10 11 12 11 10 9 8 8 8 9 10 12 13 15 16 16 16 17 16 14 13 13 12 11 9
12 12 13 14 16 18 18 16 15 15 15 16 15 14 14 14 15 16 16 15 15 14 13 10 8 8 7 6 7 8 7 7 8 9 9 8 6 7 8 9 10 9 9 10 9 8 9 10 10 12 13 14 15 14 14 16 16 13 13 14 12 11 11
12 12 11 11 11 12 13 13 12 12 12 13 13 13 13 14 15 16 15 14 14 14 14 11 9 8 8 7 7 7 7 7 8 9 9 9 7 7 8 7 8 8 9 10 10 9 8 8 10 13 13 13 12 11 11 13 13 11 11 11 10 9 9
11 10 10 9 8 8 8 9 9 9 9 9 10 12 14 14 14 15 14 13 13 13 14 12 9 8 9 9 9 8 6 6 6 7 8 10 10 11 11 10 9 10 12 13 13 12 10 6 6 9 9 9 10 11 13 13 11 9 9 9 8 7 6
10 10 9 8 7 7 7 6 6 7 8 7 8 11 13 13 12 12 11 11 11 11 11 11 9 8 8 7 7 7 6 5 6 5 7 7 8 10 12 14 13 13 13 13 13 15 15 12 10 11 11 9 10 13 13 11 10 9 8 7 7 6 5
10 10 10 9 7 6 6 6 5 6 7 6 5 7 9 10 11 10 9 9 10 9 9 9 7 5 6 7 7 7 6 4 6 8 6 8 9 7 8 10 11 11 11 11 11 11 12 12 12 14 14 12 11 11 10 8 8 7 6 6 6 6 5
11 11 10 10 9 8 8 8 7 6 7 6 5 6 6 6 7 7 7 7 8 9 7 9 9 4 5 7 8 9 9 6 6 9 9 7 11 11 8 7 7 8 9 10 10 10 9 9 9 11 11 9 9 9 7 7 7 6 6 6 6 5 5
10 9 8 8 8 8 8 8 8 7 8 7 8 8 8 6 5 5 5 5 5 7 7 8 10 7 5 6 6 7 10 9 7 8 9 9 7 7 7 7 7 8 10 11 10 10 9 8 8 8 7 7 6 6 7 7 7 7 7 6 6 5 5
8 8 7 6 7 7 7 6 6 6 6 7 8 9 9 8 7 6 5 5 4 4 5 7 9 10 7 5 5 6 8 8 7 7 8 8 7 5 3 5 8 8 8 8 9 10 10 10 10 9 9 7 5 4 6 7 7 7 7 6 6 6 6

ECMWFFLT1_925_spd_117.txt.gz
Wind_Speed
7 6 5 4 8 11 8 12 17 19 21 21 25 27 25 29 31 30 31 30 29 28 28 28 27 25 24 23 22 20 19 20 19 20 21 19 19 18 18 18 17 18 17 16 17 16 15 14 14 14 13 13 12 10 11 10 9 8 7 6 7 8 6
9 7 6 5 6 10 11 15 20 21 21 21 25 26 26 30 31 30 32 31 29 29 29 28 27 26 25 24 23 21 21 21 18 20 20 19 19 18 17 17 16 17 16 15 15 15 15 16 15 15 14 14 14 12 12 11 10 9 8 7 8 9 8
12 10 9 7 6 7 11 16 20 23 24 23 25 25 27 32 32 31 32 31 29 28 29 28 27 27 26 24 23 22 22 22 19 19 20 19 19 19 18 17 16 16 17 16 15 14 15 16 15 15 15 14 14 13 12 12 11 10 9 9 9 9 9
14 13 11 9 8 6 8 15 20 23 26 27 27 25 29 33 33 32 33 32 30 28 28 29 27 26 26 25 25 24 23 23 21 20 19 19 19 18 18 18 17 17 18 17 16 15 14 15 14 13 14 14 14 13 12 12 11 10 11 11 10 10 9
15 14 12 10 9 6 5 12 20 23 25 28 28 25 29 34 33 32 33 32 31 29 28 28 27 26 26 25 25 25 24 24 22 20 19 18 18 18 19 19 18 17 18 17 17 16 15 14 13 13 13 13 13 13 12 11 11 11 11 12 12 11 10
13 14 12 10 9 6 4 9 20 24 24 28 29 25 28 33 33 32 32 31 31 29 27 27 26 26 26 26 24 24 25 24 23 21 19 19 19 19 19 19 19 18 17 17 16 16 16 16 15 14 14 13 13 13 12 12 12 12 12 12 12 11 11
10 11 11 9 7 6 3 5 15 24 27 29 28 25 28 32 33 33 32 30 30 29 28 27 26 26 27 26 24 23 25 24 23 22 20 19 20 21 20 19 19 18 17 17 16 16 17 16 16 16 16 15 14 14 13 12 13 13 12 13 13 12 11
10 9 10 9 7 5 3 4 2 10 20 28 27 24 27 31 32 33 31 30 30 30 29 28 27 27 27 26 24 23 24 24 23 23 21 18 19 21 21 20 20 18 17 18 18 15 15 16 15 15 16 15 15 14 14 14 14 14 13 13 14 13 11
5 5 4 5 5 6 8 8 10 9 2 17 24 24 26 29 31 33 32 30 31 31 31 29 28 28 28 26 25 24 24 24 23 23 22 20 19 20 19 20 21 20 18 18 17 15 15 15 14 14 15 15 15 15 15 15 15 15 14 13 13 13 12
6 4 4 4 5 8 11 5 3 5 2 9 18 23 25 26 27 30 32 30 30 32 32 30 28 29 29 27 26 25 25 25 23 23 23 21 20 20 19 19 21 21 21 19 17 16 16 16 14 13 15 16 16 16 15 15 15 15 15 14 13 14 13
6 5 4 4 4 7 10 8 8 10 11 12 17 22 24 25 25 27 29 28 29 31 32 30 27 29 30 28 26 26 25 24 24 23 24 23 22 21 20 20 20 22 23 21 19 17 17 17 16 15 16 16 16 16 16 16 15 14 16 15 14 15 14
5 5 5 6 6 5 4 5 8 12 14 13 19 21 22 23 24 26 27 26 26 27 30 28 24 27 32 29 27 27 26 25 25 24 23 23 22 21 20 20 21 22 22 22 20 19 18 18 18 18 18 18 17 17 18 17 16 16 16 16 15 14 13
4 6 6 6 6 5 2 2 6 11 14 16 20 22 22 21 22 24 24 24 24 24 26 25 20 22 29 29 26 25 25 23 23 24 24 24 22 22 21 21 22 22 24 24 21 20 20 19 19 19 19 18 18 18 18 17 16 16 16 16 15 14 13
5 6 6 5 4 4 3 2 1 4 11 17 19 20 19 17 16 17 17 18 20 20 20 20 18 16 19 22 23 22 22 21 18 16 19 22 22 22 20 19 20 21 24 25 23 22 22 21 20 19 19 18 17 17 19 18 16 17 17 16 15 15 14
5 5 6 5 4 4 5 4 4 5 1 8 15 19 20 19 19 17 15 14 16 16 15 15 15 14 12 13 13 12 11 11 12 10 10 13 16 18 16 12 12 13 17 23 24 23 22 21 20 19 19 18 16 15 17 17 15 14 16 16 15 15 14
8 6 3 2 4 4 3 4 4 7 10 11 9 11 12 11 14 17 18 16 14 12 11 10 10 10 11 8 6 5 1 5 2 3 5 6 8 12 12 9 6 6 10 17 21 20 20 20 19 18 17 17 16 16 15 15 14 13 13 15 16 16 15
6 6 6 6 4 2 4 5 7 8 11 14 14 13 12 10 7 7 8 10 10 9 8 7 5 5 6 4 4 9 8 4 3 2 5 6 7 9 10 8 6 6 7 12 15 15 16 17 17 17 15 14 15 15 15 16 16 14 13 15 17 17 16
5 5 7 7 7 5 6 6 6 8 11 15 14 13 11 9 9 10 8 4 3 5 5 5 5 6 4 1 1 8 12 11 10 12 12 11 8 9 11 9 7 6 6 8 10 12 13 14 15 15 14 13 13 12 14 16 16 14 13 14 16 17 17
9 8 8 8 6 6 7 8 8 10 13 16 17 16 15 13 14 15 10 3 2 2 3 3 3 3 3 2 2 6 10 13 17 19 17 14 10 10 12 12 12 10 7 7 8 9 11 12 13 14 14 13 13 12 14 16 16 16 17 16 15 17 18
9 8 8 8 7 7 8 11 11 12 15 18 17 16 15 12 13 16 13 9 6 3 1 2 1 2 3 4 6 8 11 14 17 18 15 13 12 11 12 13 14 12 9 8 7 6 8 8 9 11 11 11 11 12 14 16 16 17 19 18 17 17 17
9 8 8 8 8 9 11 12 11 11 14 15 13 14 16 15 14 16 15 13 13 13 9 5 3 3 4 7 9 12 14 15 15 15 13 12 13 14 14 14 15 13 11 10 9 7 7 7 7 9 10 10 10 11 13 15 15 16 19 20 20 18 18
9 8 8 9 9 10 12 13 13 13 14 15 16 17 17 17 18 19 20 18 17 16 13 9 7 5 4 5 6 8 11 12 13 13 11 11 12 12 13 13 14 14 14 15 14 12 10 8 8 9 10 11 11 11 12 13 15 16 18 19 19 18 17
11 10 11 14 16 16 16 15 14 13 13 14 18 19 19 20 21 23 23 22 20 18 16 15 13 10 6 5 5 5 5 6 7 9 9 10 10 11 11 12 12 13 14 15 16 16 14 12 11 11 11 12 12 12 13 13 14 15 16 18 18 15 12
14 15 15 16 19 22 23 22 20 19 17 17 17 18 18 19 21 23 23 23 22 21 21 20 18 15 11 9 7 6 5 4 3 4 5 6 6 6 8 9 10 12 13 13 13 13 13 12 12 12 12 13 13 13 14 15 16 15 15 16 16 14 13
14 16 16 17 19 20 21 22 23 24 23 22 21 20 19 18 20 21 22 21 22 22 21 21 19 16 15 13 10 9 8 6 6 5 3 2 1 0 1 3 4 6 8 11 11 11 11 12 13 12 12 12 12 13 14 16 17 17 16 16 15 15 15
11 14 15 16 18 20 21 22 23 23 22 21 21 22 23 23 23 22 21 21 21 21 19 18 18 17 16 15 12 11 10 9 8 7 6 5 4 2 2 2 1 2 5 7 8 9 10 11 11 12 12 12 12 13 14 15 16 15 15 16 15 15 14
14 15 16 17 18 20 21 22 22 22 22 21 21 22 23 25 26 24 21 20 19 18 16 15 16 16 16 15 15 13 12 11 10 8 6 5 3 1 2 3 2 3 4 5 5 6 6 5 4 6 9 11 12 14 14 15 16 14 11 11 12 12 12
14 16 17 18 19 19 20 20 20 20 20 19 20 20 21 24 25 23 21 20 17 14 12 13 15 15 14 14 15 16 15 12 10 9 9 8 6 3 3 2 1 2 4 6 7 8 8 8 8 7 7 7 7 7 7 8 11 12 10 8 8 9 9
13 14 15 16 17 17 18 18 18 18 17 17 18 18 19 21 22 21 20 20 17 13 11 11 13 14 14 14 13 14 15 13 12 10 11 12 11 9 8 6 4 4 5 6 8 10 11 12 13 13 13 12 11 9 9 9 10 11 13 12 12 11 9
14 15 15 16 16 16 18 18 16 16 15 16 17 16 17 19 20 19 18 17 15 14 13 13 12 12 12 12 11 10 11 13 13 13 12 12 12 12 12 12 11 10 7 5 7 9 12 13 13 15 17 17 17 17 15 13 12 14 16 16 15 15 13
13 14 15 15 16 16 17 17 16 15 15 14 15 15 16 17 17 16 15 13 13 14 15 14 14 13 12 11 10 9 10 12 14 15 15 14 13 15 16 16 15 15 15 12 8 7 12 14 15 16 18 19 19 18 15 12 10 13 16 16 15 15 14
11 12 12 12 13 13 14 14 14 13 13 13 14 15 14 15 15 14 12 10 11 13 14 14 16 15 13 11 10 8 8 9 10 11 14 15 15 16 17 17 16 17 18 18 17 12 9 12 14 16 17 17 16 15 13 11 11 13 14 13 13 12 11
9 9 9 9 9 10 12 13 12 12 12 12 12 12 13 13 13 12 11 11 11 11 12 13 14 14 12 11 11 10 10 8 6 7 8 11 13 15 17 17 17 18 21 21 20 18 15 13 12 12 14 15 15 15 14 12 12 13 12 11 11 10 8
9 9 8 7 7 7 9 11 11 10 10 11 11 11 12 11 10 9 10 10 10 10 11 11 11 11 11 10 9 12 13 11 10 8 7 7 7 8 12 15 15 15 17 18 18 17 17 17 17 16 16 17 16 15 14 13 12 11 10 9 9 8 6
12 11 10 8 7 7 7 8 8 8 7 7 9 10 10 10 9 8 8 7 8 9 9 8 7 7 9 10 10 11 12 12 12 11 9 8 7 6 8 12 12 11 10 11 14 15 13 13 15 15 15 15 13 12 11 12 11 9 8 7 6 6 5
13 12 11 9 7 7 7 7 7 7 6 5 6 7 7 8 8 8 6 5 5 5 5 6 7 6 5 6 9 13 13 13 14 13 10 10 10 10 9 10 10 9 9 10 12 13 11 10 11 10 10 10 11 10 9 9 8 7 6 5 4 4 4
13 12 11 10 9 9 9 8 7 7 6 4 4 5 5 5 6 5 4 2 3 4 6 9 10 9 6 5 7 11 11 10 12 13 11 9 9 9 8 8 9 9 10 12 13 13 11 10 10 9 8 8 9 9 8 8 7 5 4 3 3 3 3
11 11 10 9 10 10 10 9 9 8 7 5 4 4 4 4 4 3 2 1 1 3 7 10 12 12 10 7 8 9 9 8 8 8 8 9 10 9 6 4 6 7 8 10 12 12 12 12 12 11 10 10 11 10 9 8 7 5 4 3 2 2 2

ECMWFFLT1_925_spd_123.txt.gz
Wind_Speed
8 7 6 7 10 12 12 16 22 23 25 26 28 29 30 30 30 30 30 31 32 31 30 30 31 31 29 28 28 28 26 25 26 27 26 26 26 25 25 24 23 22 21 21 22 22 20 18 18 18 16 14 13 13 13 13 12 11 9 9 9 8 8
9 7 6 6 9 12 14 19 24 25 26 27 28 30 30 30 31 31 31 32 33 32 32 32 31 31 30 29 29 28 26 25 25 27 27 26 26 26 25 24 23 22 22 21 22 22 20 18 18 19 17 15 14 13 13 13 12 11 10 10 10 9 8
9 8 7 6 7 10 13 18 23 26 27 28 29 30 31 32 33 33 33 33 33 33 32 33 33 32 31 30 30 28 27 26 26 27 27 27 26 26 26 25 23 22 23 22 22 22 21 19 19 19 17 16 15 14 13 13 12 12 11 11 11 10 9
11 10 8 7 6 8 12 16 21 25 28 30 32 32 33 34 35 35 35 35 34 33 32 33 33 33 32 32 31 30 28 28 27 27 27 27 25 25 25 26 25 23 24 24 22 22 22 20 20 20 18 17 16 16 15 15 14 13 12 12 12 11 11
12 11 9 7 6 5 8 14 20 24 27 30 32 33 34 35 35 34 34 35 36 35 35 35 34 33 33 32 31 30 29 29 29 28 27 26 25 24 25 26 26 25 25 24 23 22 22 21 21 21 20 18 17 17 17 16 15 14 13 13 13 12 12
11 11 10 8 7 5 6 12 20 24 27 30 32 33 34 34 34 35 34 34 34 34 35 34 33 33 32 32 31 29 29 30 30 28 27 26 26 25 26 26 26 26 26 25 23 22 22 22 21 21 21 20 19 18 17 17 16 15 13 13 13 13 12
9 9 10 10 8 6 5 9 17 22 24 29 32 32 32 33 34 34 34 34 34 34 34 33 33 33 32 31 30 29 29 30 30 29 27 26 26 26 26 26 25 25 25 24 23 22 21 22 21 21 21 20 20 19 18 17 17 15 14 14 13 12 12
8 8 9 10 10 7 5 8 14 19 21 23 26 29 32 34 34 34 34 34 34 34 33 33 33 33 32 31 30 29 29 29 30 30 27 26 26 25 25 25 25 25 24 24 23 21 21 21 21 20 20 20 20 19 18 18 17 16 15 15 14 13 12
1 1 1 3 5 4 4 6 12 18 21 22 24 27 29 31 31 33 34 34 34 34 34 35 34 34 32 31 30 30 29 28 30 29 27 26 26 25 25 25 25 24 24 24 23 22 21 21 21 20 20 20 20 20 19 18 17 16 16 16 15 15 14
7 5 5 5 4 2 4 6 6 3 7 12 19 25 29 32 32 33 34 34 33 34 34 33 33 33 32 32 31 30 28 28 29 29 27 27 26 25 25 25 24 23 23 24 23 23 22 22 22 22 21 21 21 20 20 19 18 18 17 17 16 16 15
8 7 7 8 7 5 6 8 9 10 12 11 6 2 9 17 24 28 31 32 33 36 37 35 33 32 31 31 30 29 29 28 28 28 28 28 27 26 25 25 24 24 24 24 24 24 23 22 23 23 23 22 22 21 21 20 20 19 19 18 17 16 16
6 6 7 8 8 7 5 5 6 8 8 7 10 10 9 5 5 11 14 14 13 17 23 28 30 32 32 31 29 28 28 29 28 29 28 28 28 28 27 26 25 25 25 25 25 25 24 23 23 23 23 23 23 22 22 21 21 20 20 19 18 18 18
5 4 4 5 5 5 4 4 3 5 10 11 7 7 6 4 5 8 9 12 10 6 8 12 18 23 25 28 29 29 28 29 29 29 29 29 28 28 28 28 27 26 26 26 26 26 26 24 23 23 23 23 23 23 22 22 21 21 21 20 19 19 19
5 4 2 3 3 3 4 4 1 1 6 12 14 15 16 15 15 14 13 20 25 23 21 20 19 19 19 20 24 27 28 29 29 29 29 29 29 29 28 28 28 27 26 27 28 27 27 26 25 24 24 23 23 23 23 22 21 21 21 21 20 19 19
4 3 2 2 2 2 1 3 5 6 8 11 14 15 16 18 20 18 16 20 25 27 30 31 28 26 25 23 23 24 26 27 27 28 29 29 29 30 30 30 29 27 26 27 29 28 27 27 27 26 25 25 24 23 23 22 22 21 21 21 21 20 19
4 4 4 3 2 3 3 4 2 3 7 9 11 13 15 16 18 20 21 22 23 22 24 29 30 29 28 27 25 25 25 24 25 26 28 29 30 30 31 32 30 28 27 27 28 29 28 28 28 28 27 26 25 24 24 24 23 22 22 21 21 21 21
5 5 5 4 3 3 4 4 5 5 4 1 5 9 11 12 15 18 18 20 22 21 21 26 30 29 28 27 27 27 26 24 23 22 22 26 29 29 28 29 29 29 30 30 29 29 28 29 29 29 29 27 27 26 25 25 24 23 22 22 22 23 22
6 6 6 5 4 4 4 5 5 6 8 6 1 8 11 13 15 16 18 19 21 22 21 23 26 28 29 29 28 27 26 23 21 20 17 17 21 25 26 24 22 20 22 26 29 29 29 30 30 30 30 29 29 28 26 26 24 23 22 22 22 23 23
7 7 6 6 5 5 5 5 6 8 10 9 4 6 13 18 19 19 20 23 24 24 22 19 18 19 21 23 23 23 22 21 19 19 17 12 11 16 22 23 21 15 11 15 20 23 25 28 29 29 30 29 29 29 28 27 25 23 22 22 22 22 23
8 7 7 7 6 6 6 7 9 11 11 11 9 6 3 11 19 20 19 21 23 24 23 20 16 13 12 13 16 19 20 21 20 19 20 16 9 10 15 19 20 15 8 8 11 13 14 17 20 24 26 27 27 27 27 27 26 23 23 23 22 22 22
7 7 7 7 7 7 9 12 13 14 15 14 12 10 10 9 13 17 15 15 16 17 17 18 17 15 12 11 11 14 16 17 17 16 17 16 12 10 13 13 12 13 11 9 9 9 10 10 10 12 16 19 22 23 24 25 25 24 24 24 24 23 23
6 7 7 7 8 9 12 15 16 16 17 18 15 13 13 12 13 15 14 13 12 11 11 12 12 12 12 12 10 11 12 13 14 14 13 13 11 10 12 11 9 12 15 13 11 12 13 14 13 12 11 13 16 19 21 22 22 23 24 24 24 24 24
6 6 7 9 10 12 14 16 17 17 18 18 17 16 14 13 14 15 16 15 14 13 12 11 10 9 9 10 9 8 7 6 8 8 8 8 8 9 11 9 8 10 14 15 16 17 17 17 19 18 16 15 16 18 19 19 19 20 22 23 24 24 25
8 9 9 11 12 14 15 16 17 17 18 19 18 17 16 16 16 18 18 17 16 16 15 14 12 10 8 7 7 5 3 3 4 5 6 6 6 7 10 9 8 9 11 14 17 18 18 18 20 20 20 19 19 19 20 19 17 17 18 20 21 22 23
9 10 11 11 12 13 13 14 16 17 18 18 16 15 17 18 19 20 20 18 19 19 18 16 14 11 9 6 5 5 5 4 4 4 4 4 7 8 8 8 9 9 10 12 14 15 17 18 19 21 23 24 24 22 19 17 16 15 16 17 18 19 20
8 10 10 10 11 11 12 13 15 16 17 16 14 14 15 18 20 21 19 18 19 19 17 16 15 14 12 10 8 6 5 4 3 2 3 4 5 6 7 7 8 8 9 10 12 13 15 16 18 20 22 23 25 24 21 20 19 19 19 19 18 18 19
10 10 10 9 9 11 13 14 14 15 15 14 13 13 14 17 20 20 19 19 19 16 13 13 13 14 14 15 13 11 8 5 4 3 2 2 3 4 6 6 7 8 9 10 11 13 14 15 15 16 17 18 21 22 22 21 22 22 22 22 22 22 21
11 10 9 9 9 11 13 14 14 15 15 14 14 14 14 17 19 19 18 19 17 13 11 12 13 13 14 14 15 15 13 11 9 8 6 4 2 2 3 3 4 6 7 8 9 10 12 13 14 13 12 11 11 13 13 13 14 17 18 20 22 22 22
10 10 10 10 10 10 12 14 15 15 15 15 15 15 15 17 19 19 20 20 17 12 10 11 13 13 13 14 14 14 14 13 12 11 11 9 7 4 4 3 1 2 4 6 7 7 8 9 9 9 6 5 5 5 5 4 6 8 10 12 15 17 18
10 11 11 11 10 10 12 14 15 15 15 15 15 15 16 17 18 19 20 20 17 12 10 9 10 11 12 13 14 14 14 14 14 14 14 13 12 11 10 9 6 3 1 3 5 7 8 8 8 8 8 8 7 5 4 2 0 3 4 6 8 11 12
9 11 12 12 11 10 11 12 13 13 13 13 14 14 14 14 15 17 18 18 16 13 11 9 9 10 11 11 13 13 13 13 14 14 14 14 14 14 15 14 12 8 4 3 4 7 8 10 11 12 12 12 11 10 8 5 3 2 2 3 4 6 7
9 9 10 10 10 9 8 9 10 11 11 11 11 12 12 11 12 14 15 14 14 13 12 11 11 10 10 9 10 10 10 10 11 11 12 13 13 14 15 16 16 14 9 7 7 8 8 9 10 12 13 13 13 13 11 9 8 7 6 5 5 4 6
8 8 8 7 7 6 5 6 8 8 8 8 8 9 9 9 9 10 11 11 11 12 10 10 11 11 11 9 8 8 8 9 9 8 9 10 11 12 12 12 14 15 14 12 12 12 11 10 10 12 12 12 12 13 13 12 11 10 9 8 7 8 8
8 8 7 5 4 4 3 4 4 5 5 5 6 7 8 9 9 8 9 9 10 10 9 10 10 10 10 10 9 8 9 9 10 11 11 10 11 13 14 12 12 15 17 16 14 13 12 12 13 12 11 11 12 11 11 11 10 9 8 8 9 9 10
6 7 6 5 3 3 3 3 2 2 3 4 5 6 7 8 9 8 8 9 9 9 8 8 8 8 9 9 9 10 10 11 12 13 13 12 13 14 14 14 13 15 17 17 16 14 12 12 13 12 10 10 11 11 9 8 7 7 7 8 9 9 10
4 5 6 5 3 2 1 2 4 4 5 5 5 6 6 7 8 8 8 8 8 8 7 5 5 7 8 8 8 8 8 9 11 12 12 13 13 13 13 13 13 14 16 17 16 14 13 12 12 10 6 5 5 6 7 7 6 6 6 6 6 7 8
7 5 5 5 5 5 4 2 2 3 5 6 6 6 7 7 7 7 7 7 7 7 6 3 2 3 4 6 7 7 7 7 8 8 9 9 11 12 13 13 13 13 14 15 15 14 13 12 11 9 7 5 4 4 4 4 5 5 4 4 5 6 7
10 8 6 6 6 6 7 6 5 3 3 4 5 6 7 6 7 7 7 6 6 6 5 3 1 1 1 2 3 4 5 5 6 6 6 6 7 8 10 11 12 13 13 13 14 15 14 14 13 12 10 9 8 6 5 4 3 3 4 4 5 5 7